Wetterdaten: Freitag, 18.02.2022
Datum Zeit Temp. Aussen Temp. o. S. Temp +5cm Feuchte Auss Luftdruck Regen Sonnenschein Regendauer Solar Windben Empfang
18.02.2022 00:00 7,2 C 6,1 C 2,8 C 88 % 1011,9 hPa 0,0 l/m 0 min 0 min 0 W/m 16,1 km/h (3 Bft) 100,00 %
18.02.2022 00:02 7,1 C 6,1 C 2,8 C 88 % 1012,0 hPa 0,0 l/m 0 min 0 min 0 W/m 16,1 km/h (3 Bft) 100,00 %
18.02.2022 00:04 7,1 C 6,1 C 2,8 C 88 % 1011,9 hPa 0,0 l/m 0 min 0 min 0 W/m 19,3 km/h (3 Bft) 100,00 %
18.02.2022 00:08 7,1 C 6,1 C 2,8 C 88 % 1011,9 hPa 0,0 l/m 0 min 0 min 0 W/m 22,5 km/h (4 Bft) 98,94 %
18.02.2022 00:10 7,1 C 6,1 C 2,8 C 88 % 1012,0 hPa 0,0 l/m 0 min 0 min 0 W/m 19,3 km/h (3 Bft) 100,00 %
18.02.2022 00:12 7,1 C 6,1 C 2,8 C 88 % 1011,9 hPa 0,0 l/m 0 min 0 min 0 W/m 9,7 km/h (2 Bft) 100,00 %
18.02.2022 00:14 7,1 C 6,1 C 2,8 C 89 % 1011,9 hPa 0,0 l/m 0 min 0 min 0 W/m 6,4 km/h (2 Bft) 100,00 %
18.02.2022 00:16 7,1 C 6,1 C 2,8 C 89 % 1011,9 hPa 0,0 l/m 0 min 0 min 0 W/m 12,9 km/h (3 Bft) 100,00 %
18.02.2022 00:18 7,1 C 6,1 C 2,8 C 89 % 1012,2 hPa 0,0 l/m 0 min 0 min 0 W/m 25,7 km/h (4 Bft) 100,00 %
18.02.2022 00:20 7,1 C 6,1 C 2,8 C 89 % 1012,0 hPa 0,0 l/m 0 min 0 min 0 W/m 16,1 km/h (3 Bft) 100,00 %
18.02.2022 00:22 7,1 C 6,1 C 2,8 C 89 % 1012,1 hPa 0,0 l/m 0 min 0 min 0 W/m 12,9 km/h (3 Bft) 97,87 %
18.02.2022 00:24 7,1 C 6,1 C 2,8 C 89 % 1012,1 hPa 0,0 l/m 0 min 0 min 0 W/m 9,7 km/h (2 Bft) 100,00 %
18.02.2022 00:26 7,1 C 6,1 C 2,8 C 89 % 1012,1 hPa 0,0 l/m 0 min 0 min 0 W/m 12,9 km/h (3 Bft) 100,00 %
18.02.2022 00:28 7,1 C 6,1 C 2,8 C 89 % 1012,0 hPa 0,0 l/m 0 min 0 min 0 W/m 16,1 km/h (3 Bft) 100,00 %
18.02.2022 00:30 7,1 C 6,1 C 2,8 C 89 % 1012,0 hPa 0,0 l/m 0 min 0 min 0 W/m 16,1 km/h (3 Bft) 100,00 %
18.02.2022 00:32 7,0 C 6,1 C 2,8 C 89 % 1012,0 hPa 0,0 l/m 0 min 0 min 0 W/m 12,9 km/h (3 Bft) 98,11 %
18.02.2022 00:34 7,0 C 6,1 C 2,8 C 89 % 1012,0 hPa 0,0 l/m 0 min 0 min 0 W/m 9,7 km/h (2 Bft) 100,00 %
18.02.2022 00:36 7,0 C 6,1 C 2,8 C 89 % 1012,0 hPa 0,0 l/m 0 min 0 min 0 W/m 9,7 km/h (2 Bft) 100,00 %
18.02.2022 00:38 7,0 C 6,1 C 2,8 C 90 % 1012,0 hPa 0,0 l/m 0 min 0 min 0 W/m 22,5 km/h (4 Bft) 100,00 %
18.02.2022 00:40 7,0 C 6,1 C 2,8 C 90 % 1012,1 hPa 0,0 l/m 0 min 0 min 0 W/m 6,4 km/h (2 Bft) 100,00 %
18.02.2022 00:42 7,0 C 6,1 C 2,8 C 90 % 1012,1 hPa 0,0 l/m 0 min 0 min 0 W/m 16,1 km/h (3 Bft) 100,00 %
18.02.2022 00:44 7,0 C 6,1 C 2,8 C 90 % 1012,1 hPa 0,0 l/m 0 min 0 min 0 W/m 12,9 km/h (3 Bft) 100,00 %
18.02.2022 00:46 7,0 C 6,1 C 2,8 C 90 % 1012,1 hPa 0,0 l/m 0 min 0 min 0 W/m 12,9 km/h (3 Bft) 100,00 %
18.02.2022 00:48 7,0 C 6,1 C 2,8 C 90 % 1012,0 hPa 0,0 l/m 0 min 0 min 0 W/m 12,9 km/h (3 Bft) 100,00 %
18.02.2022 00:50 7,0 C 6,1 C 2,8 C 90 % 1012,0 hPa 0,0 l/m 0 min 0 min 0 W/m 9,7 km/h (2 Bft) 97,87 %
18.02.2022 00:52 7,0 C 6,1 C 2,8 C 90 % 1012,0 hPa 0,0 l/m 0 min 0 min 0 W/m 16,1 km/h (3 Bft) 97,83 %
18.02.2022 00:54 7,0 C 6,1 C 2,8 C 91 % 1012,0 hPa 0,0 l/m 0 min 0 min 0 W/m 22,5 km/h (4 Bft) 100,00 %
18.02.2022 00:56 7,0 C 6,1 C 2,8 C 91 % 1012,0 hPa 0,0 l/m 0 min 0 min 0 W/m 16,1 km/h (3 Bft) 100,00 %
18.02.2022 00:58 7,0 C 6,1 C 2,8 C 91 % 1012,0 hPa 0,0 l/m 0 min 0 min 0 W/m 19,3 km/h (3 Bft) 100,00 %
18.02.2022 01:00 7,0 C 6,1 C 2,8 C 91 % 1012,0 hPa 0,0 l/m 0 min 0 min 0 W/m 16,1 km/h (3 Bft) 100,00 %
18.02.2022 01:02 7,0 C 6,1 C 2,8 C 91 % 1012,0 hPa 0,0 l/m 0 min 0 min 0 W/m 9,7 km/h (2 Bft) 100,00 %
18.02.2022 01:04 7,0 C 6,1 C 2,8 C 91 % 1011,9 hPa 0,0 l/m 0 min 0 min 0 W/m 9,7 km/h (2 Bft) 100,00 %
18.02.2022 01:06 7,0 C 6,1 C 2,8 C 91 % 1011,9 hPa 0,0 l/m 0 min 0 min 0 W/m 9,7 km/h (2 Bft) 100,00 %
18.02.2022 01:08 7,0 C 6,1 C 2,8 C 91 % 1011,9 hPa 0,0 l/m 0 min 0 min 0 W/m 12,9 km/h (3 Bft) 100,00 %
18.02.2022 01:10 7,0 C 6,1 C 2,8 C 91 % 1011,9 hPa 0,0 l/m 0 min 0 min 0 W/m 6,4 km/h (2 Bft) 100,00 %
18.02.2022 01:12 6,9 C 6,1 C 2,8 C 91 % 1012,0 hPa 0,0 l/m 0 min 0 min 0 W/m 12,9 km/h (3 Bft) 100,00 %
18.02.2022 01:14 6,9 C 6,1 C 2,8 C 91 % 1011,9 hPa 0,0 l/m 0 min 0 min 0 W/m 9,7 km/h (2 Bft) 100,00 %
18.02.2022 01:16 6,9 C 6,1 C 2,8 C 91 % 1012,0 hPa 0,0 l/m 0 min 0 min 0 W/m 12,9 km/h (3 Bft) 95,74 %
18.02.2022 01:18 6,9 C 6,1 C 2,8 C 91 % 1012,0 hPa 0,0 l/m 0 min 0 min 0 W/m 9,7 km/h (2 Bft) 95,65 %
18.02.2022 01:20 6,9 C 6,1 C 2,8 C 91 % 1012,0 hPa 0,0 l/m 0 min 0 min 0 W/m 16,1 km/h (3 Bft) 93,62 %
18.02.2022 01:22 6,9 C 6,1 C 2,8 C 91 % 1012,0 hPa 0,0 l/m 0 min 0 min 0 W/m 12,9 km/h (3 Bft) 95,74 %
18.02.2022 01:24 6,9 C 6,1 C 2,8 C 91 % 1011,9 hPa 0,0 l/m 0 min 0 min 0 W/m 9,7 km/h (2 Bft) 91,49 %
18.02.2022 01:26 6,9 C 6,1 C 2,8 C 91 % 1011,9 hPa 0,0 l/m 0 min 0 min 0 W/m 16,1 km/h (3 Bft) 95,74 %
18.02.2022 01:28 6,9 C 6,1 C 2,8 C 91 % 1012,0 hPa 0,0 l/m 0 min 0 min 0 W/m 12,9 km/h (3 Bft) 95,74 %
18.02.2022 01:30 6,9 C 6,1 C 2,8 C 91 % 1012,0 hPa 0,0 l/m 0 min 0 min 0 W/m 16,1 km/h (3 Bft) 95,74 %
18.02.2022 01:32 6,9 C 6,1 C 2,8 C 91 % 1012,0 hPa 0,0 l/m 0 min 0 min 0 W/m 25,7 km/h (4 Bft) 93,62 %
18.02.2022 01:34 7,0 C 6,1 C 2,8 C 91 % 1012,0 hPa 0,0 l/m 0 min 0 min 0 W/m 16,1 km/h (3 Bft) 95,65 %
18.02.2022 01:36 7,0 C 6,1 C 2,8 C 91 % 1012,0 hPa 0,0 l/m 0 min 0 min 0 W/m 12,9 km/h (3 Bft) 95,74 %
18.02.2022 01:38 7,0 C 6,1 C 2,8 C 91 % 1012,0 hPa 0,0 l/m 0 min 0 min 0 W/m 12,9 km/h (3 Bft) 95,74 %
18.02.2022 01:40 7,0 C 6,1 C 2,8 C 91 % 1012,0 hPa 0,0 l/m 0 min 0 min 0 W/m 9,7 km/h (2 Bft) 93,62 %
18.02.2022 01:42 7,0 C 6,1 C 2,8 C 91 % 1012,0 hPa 0,0 l/m 0 min 0 min 0 W/m 25,7 km/h (4 Bft) 91,49 %
18.02.2022 01:44 7,1 C 6,1 C 3,3 C 91 % 1012,0 hPa 0,0 l/m 0 min 0 min 0 W/m 16,1 km/h (3 Bft) 93,62 %
18.02.2022 01:46 7,0 C 6,1 C 3,3 C 91 % 1011,9 hPa 0,0 l/m 0 min 0 min 0 W/m 16,1 km/h (3 Bft) 93,48 %
18.02.2022 01:48 7,0 C 6,1 C 3,3 C 91 % 1011,9 hPa 0,0 l/m 0 min 0 min 0 W/m 16,1 km/h (3 Bft) 93,62 %
18.02.2022 01:50 7,1 C 6,1 C 3,3 C 91 % 1011,9 hPa 0,0 l/m 0 min 0 min 0 W/m 16,1 km/h (3 Bft) 95,74 %
18.02.2022 01:52 7,1 C 6,1 C 3,3 C 91 % 1011,9 hPa 0,0 l/m 0 min 0 min 0 W/m 12,9 km/h (3 Bft) 95,74 %
18.02.2022 01:54 7,1 C 6,1 C 3,3 C 91 % 1011,9 hPa 0,0 l/m 0 min 0 min 0 W/m 9,7 km/h (2 Bft) 95,74 %
18.02.2022 01:56 7,1 C 6,1 C 3,3 C 91 % 1012,0 hPa 0,0 l/m 0 min 0 min 0 W/m 9,7 km/h (2 Bft) 95,74 %
18.02.2022 01:58 7,1 C 6,1 C 3,3 C 91 % 1011,9 hPa 0,0 l/m 0 min 0 min 0 W/m 12,9 km/h (3 Bft) 97,83 %
18.02.2022 02:00 7,1 C 6,1 C 3,3 C 91 % 1011,8 hPa 0,0 l/m 0 min 0 min 0 W/m 9,7 km/h (2 Bft) 93,62 %
18.02.2022 02:02 7,1 C 6,1 C 3,3 C 90 % 1011,8 hPa 0,0 l/m 0 min 0 min 0 W/m 12,9 km/h (3 Bft) 95,74 %
18.02.2022 02:04 7,1 C 6,1 C 3,3 C 90 % 1011,8 hPa 0,0 l/m 0 min 0 min 0 W/m 9,7 km/h (2 Bft) 96,00 %
18.02.2022 02:06 7,1 C 6,1 C 3,3 C 90 % 1011,8 hPa 0,0 l/m 0 min 0 min 0 W/m 12,9 km/h (3 Bft) 95,65 %
18.02.2022 02:08 7,1 C 6,1 C 3,3 C 90 % 1011,7 hPa 0,0 l/m 0 min 0 min 0 W/m 6,4 km/h (2 Bft) 95,74 %
18.02.2022 02:10 7,1 C 6,1 C 3,3 C 90 % 1011,6 hPa 0,0 l/m 0 min 0 min 0 W/m 12,9 km/h (3 Bft) 97,87 %
18.02.2022 02:12 7,1 C 6,1 C 3,3 C 90 % 1011,6 hPa 0,0 l/m 0 min 0 min 0 W/m 19,3 km/h (3 Bft) 97,87 %
18.02.2022 02:14 7,1 C 6,1 C 3,3 C 90 % 1011,8 hPa 0,0 l/m 0 min 0 min 0 W/m 6,4 km/h (2 Bft) 97,87 %
18.02.2022 02:16 7,1 C 6,7 C 3,3 C 90 % 1011,7 hPa 0,0 l/m 0 min 0 min 0 W/m 9,7 km/h (2 Bft) 93,62 %
18.02.2022 02:18 7,1 C 6,1 C 3,3 C 90 % 1011,6 hPa 0,0 l/m 0 min 0 min 0 W/m 12,9 km/h (3 Bft) 97,83 %
18.02.2022 02:20 7,1 C 6,1 C 3,3 C 90 % 1011,6 hPa 0,0 l/m 0 min 0 min 0 W/m 16,1 km/h (3 Bft) 97,87 %
18.02.2022 02:22 7,1 C 6,1 C 3,3 C 90 % 1011,5 hPa 0,0 l/m 0 min 0 min 0 W/m 12,9 km/h (3 Bft) 95,74 %
18.02.2022 02:24 7,1 C 6,1 C 3,3 C 90 % 1011,4 hPa 0,0 l/m 0 min 0 min 0 W/m 6,4 km/h (2 Bft) 100,00 %
18.02.2022 02:26 7,1 C 6,1 C 3,3 C 90 % 1011,4 hPa 0,0 l/m 0 min 0 min 0 W/m 6,4 km/h (2 Bft) 97,87 %
18.02.2022 02:28 7,1 C 6,7 C 3,3 C 90 % 1011,4 hPa 0,0 l/m 0 min 0 min 0 W/m 12,9 km/h (3 Bft) 100,00 %
18.02.2022 02:30 7,1 C 6,1 C 3,3 C 90 % 1011,4 hPa 0,0 l/m 0 min 0 min 0 W/m 6,4 km/h (2 Bft) 97,83 %
18.02.2022 02:32 7,1 C 6,1 C 3,3 C 90 % 1011,3 hPa 0,0 l/m 0 min 0 min 0 W/m 16,1 km/h (3 Bft) 97,87 %
18.02.2022 02:34 7,1 C 6,7 C 3,3 C 90 % 1011,4 hPa 0,0 l/m 0 min 0 min 0 W/m 19,3 km/h (3 Bft) 100,00 %
18.02.2022 02:36 7,2 C 6,7 C 3,3 C 90 % 1011,2 hPa 0,0 l/m 0 min 0 min 0 W/m 12,9 km/h (3 Bft) 95,74 %
18.02.2022 02:38 7,2 C 6,7 C 3,3 C 90 % 1011,1 hPa 0,0 l/m 0 min 0 min 0 W/m 9,7 km/h (2 Bft) 100,00 %
18.02.2022 02:40 7,2 C 6,7 C 3,3 C 90 % 1011,1 hPa 0,0 l/m 0 min 0 min 0 W/m 19,3 km/h (3 Bft) 100,00 %
18.02.2022 02:42 7,2 C 6,7 C 3,3 C 90 % 1011,1 hPa 0,0 l/m 0 min 0 min 0 W/m 12,9 km/h (3 Bft) 100,00 %
18.02.2022 02:44 7,2 C 6,7 C 3,3 C 90 % 1011,1 hPa 0,0 l/m 0 min 0 min 0 W/m 12,9 km/h (3 Bft) 100,00 %
18.02.2022 02:46 7,2 C 6,7 C 3,3 C 90 % 1011,1 hPa 0,0 l/m 0 min 0 min 0 W/m 19,3 km/h (3 Bft) 100,00 %
18.02.2022 02:48 7,2 C 6,7 C 3,3 C 90 % 1011,0 hPa 0,0 l/m 0 min 0 min 0 W/m 16,1 km/h (3 Bft) 100,00 %
18.02.2022 02:50 7,2 C 6,7 C 3,3 C 90 % 1010,9 hPa 0,0 l/m 0 min 0 min 0 W/m 19,3 km/h (3 Bft) 100,00 %
18.02.2022 02:52 7,2 C 6,7 C 3,3 C 90 % 1010,9 hPa 0,0 l/m 0 min 0 min 0 W/m 9,7 km/h (2 Bft) 100,00 %
18.02.2022 02:54 7,3 C 6,7 C 3,3 C 90 % 1010,9 hPa 0,0 l/m 0 min 0 min 0 W/m 16,1 km/h (3 Bft) 100,00 %
18.02.2022 02:56 7,3 C 6,7 C 3,3 C 90 % 1011,0 hPa 0,0 l/m 0 min 0 min 0 W/m 12,9 km/h (3 Bft) 100,00 %
18.02.2022 02:58 7,3 C 6,7 C 3,3 C 90 % 1010,9 hPa 0,0 l/m 0 min 0 min 0 W/m 16,1 km/h (3 Bft) 100,00 %
18.02.2022 03:00 7,3 C 6,7 C 3,3 C 90 % 1010,9 hPa 0,0 l/m 0 min 0 min 0 W/m 6,4 km/h (2 Bft) 100,00 %
18.02.2022 03:02 7,3 C 6,7 C 3,3 C 90 % 1010,9 hPa 0,0 l/m 0 min 0 min 0 W/m 12,9 km/h (3 Bft) 100,00 %
18.02.2022 03:04 7,3 C 6,7 C 3,3 C 90 % 1010,9 hPa 0,0 l/m 0 min 0 min 0 W/m 16,1 km/h (3 Bft) 100,00 %
18.02.2022 03:06 7,3 C 6,7 C 3,3 C 90 % 1011,0 hPa 0,0 l/m 0 min 0 min 0 W/m 12,9 km/h (3 Bft) 100,00 %
18.02.2022 03:08 7,3 C 6,7 C 3,3 C 90 % 1011,0 hPa 0,0 l/m 0 min 0 min 0 W/m 6,4 km/h (2 Bft) 100,00 %
18.02.2022 03:10 7,3 C 6,7 C 3,3 C 90 % 1010,9 hPa 0,0 l/m 0 min 0 min 0 W/m 12,9 km/h (3 Bft) 100,00 %
18.02.2022 03:12 7,3 C 6,7 C 3,3 C 90 % 1010,9 hPa 0,0 l/m 0 min 0 min 0 W/m 6,4 km/h (2 Bft) 93,62 %
18.02.2022 03:14 7,3 C 6,7 C 3,3 C 90 % 1011,0 hPa 0,0 l/m 0 min 0 min 0 W/m 16,1 km/h (3 Bft) 97,87 %
18.02.2022 03:16 7,4 C 6,7 C 3,3 C 90 % 1010,9 hPa 0,0 l/m 0 min 0 min 0 W/m 19,3 km/h (3 Bft) 95,74 %
18.02.2022 03:18 7,4 C 6,7 C 3,3 C 90 % 1010,9 hPa 0,0 l/m 0 min 0 min 0 W/m 9,7 km/h (2 Bft) 97,87 %
18.02.2022 03:20 7,4 C 6,7 C 3,3 C 90 % 1010,9 hPa 0,0 l/m 0 min 0 min 0 W/m 12,9 km/h (3 Bft) 97,83 %
18.02.2022 03:22 7,4 C 6,7 C 3,3 C 90 % 1010,8 hPa 0,0 l/m 0 min 0 min 0 W/m 12,9 km/h (3 Bft) 97,87 %
18.02.2022 03:24 7,4 C 6,7 C 3,3 C 89 % 1010,8 hPa 0,0 l/m 0 min 0 min 0 W/m 12,9 km/h (3 Bft) 97,87 %
18.02.2022 03:26 7,4 C 6,7 C 3,3 C 89 % 1010,8 hPa 0,0 l/m 0 min 0 min 0 W/m 16,1 km/h (3 Bft) 95,74 %
18.02.2022 03:28 7,4 C 6,7 C 3,3 C 89 % 1010,7 hPa 0,0 l/m 0 min 0 min 0 W/m 16,1 km/h (3 Bft) 53,33 %
18.02.2022 03:30 7,4 C 6,7 C 3,3 C 89 % 1010,6 hPa 0,0 l/m 0 min 0 min 0 W/m 16,1 km/h (3 Bft) 97,87 %
18.02.2022 03:32 7,4 C 6,7 C 3,3 C 90 % 1010,6 hPa 0,0 l/m 0 min 0 min 0 W/m 16,1 km/h (3 Bft) 95,65 %
18.02.2022 03:34 7,4 C 6,7 C 3,3 C 90 % 1010,6 hPa 0,0 l/m 0 min 0 min 0 W/m 12,9 km/h (3 Bft) 97,87 %
18.02.2022 03:36 7,4 C 6,7 C 3,3 C 90 % 1010,5 hPa 0,0 l/m 0 min 0 min 0 W/m 19,3 km/h (3 Bft) 97,87 %
18.02.2022 03:38 7,4 C 6,7 C 3,3 C 90 % 1010,5 hPa 0,0 l/m 0 min 0 min 0 W/m 12,9 km/h (3 Bft) 97,87 %
18.02.2022 03:40 7,4 C 6,7 C 3,3 C 90 % 1010,4 hPa 0,0 l/m 0 min 0 min 0 W/m 16,1 km/h (3 Bft) 97,87 %
18.02.2022 03:42 7,4 C 6,7 C 3,3 C 90 % 1010,3 hPa 0,0 l/m 0 min 0 min 0 W/m 16,1 km/h (3 Bft) 97,87 %
18.02.2022 03:44 7,4 C 6,7 C 3,3 C 90 % 1010,3 hPa 0,0 l/m 0 min 0 min 0 W/m 12,9 km/h (3 Bft) 97,83 %
18.02.2022 03:46 7,4 C 6,7 C 3,3 C 90 % 1010,3 hPa 0,0 l/m 0 min 0 min 0 W/m 12,9 km/h (3 Bft) 97,87 %
18.02.2022 03:48 7,4 C 6,7 C 3,3 C 90 % 1010,3 hPa 0,0 l/m 0 min 0 min 0 W/m 19,3 km/h (3 Bft) 100,00 %
18.02.2022 03:50 7,4 C 6,7 C 3,3 C 90 % 1010,3 hPa 0,0 l/m 0 min 0 min 0 W/m 19,3 km/h (3 Bft) 100,00 %
18.02.2022 03:52 7,4 C 6,7 C 3,3 C 90 % 1010,2 hPa 0,0 l/m 0 min 0 min 0 W/m 19,3 km/h (3 Bft) 100,00 %
18.02.2022 03:54 7,4 C 6,7 C 3,3 C 90 % 1010,2 hPa 0,0 l/m 0 min 0 min 0 W/m 19,3 km/h (3 Bft) 100,00 %
18.02.2022 03:56 7,4 C 6,7 C 3,3 C 90 % 1010,1 hPa 0,0 l/m 0 min 0 min 0 W/m 12,9 km/h (3 Bft) 100,00 %
18.02.2022 03:58 7,4 C 6,7 C 3,3 C 90 % 1010,2 hPa 0,0 l/m 0 min 0 min 0 W/m 19,3 km/h (3 Bft) 100,00 %
18.02.2022 04:00 7,4 C 6,7 C 3,3 C 90 % 1010,1 hPa 0,0 l/m 0 min 0 min 0 W/m 16,1 km/h (3 Bft) 97,87 %
18.02.2022 04:02 7,4 C 6,7 C 3,3 C 90 % 1010,1 hPa 0,0 l/m 0 min 0 min 0 W/m 19,3 km/h (3 Bft) 93,33 %
18.02.2022 04:04 7,4 C 6,7 C 3,3 C 90 % 1010,0 hPa 0,0 l/m 0 min 0 min 0 W/m 19,3 km/h (3 Bft) 95,74 %
18.02.2022 04:06 7,5 C 6,7 C 3,3 C 90 % 1010,0 hPa 0,0 l/m 0 min 0 min 0 W/m 22,5 km/h (4 Bft) 100,00 %
18.02.2022 04:08 7,5 C 6,7 C 3,3 C 90 % 1010,0 hPa 0,0 l/m 0 min 0 min 0 W/m 22,5 km/h (4 Bft) 100,00 %
18.02.2022 04:10 7,6 C 6,7 C 3,9 C 90 % 1009,9 hPa 0,0 l/m 0 min 0 min 0 W/m 19,3 km/h (3 Bft) 97,87 %
18.02.2022 04:12 7,6 C 6,7 C 3,9 C 90 % 1009,8 hPa 0,0 l/m 0 min 0 min 0 W/m 16,1 km/h (3 Bft) 97,87 %
18.02.2022 04:14 7,6 C 6,7 C 3,9 C 90 % 1009,7 hPa 0,0 l/m 0 min 0 min 0 W/m 16,1 km/h (3 Bft) 97,87 %
18.02.2022 04:16 7,6 C 6,7 C 3,9 C 90 % 1009,7 hPa 0,0 l/m 0 min 0 min 0 W/m 16,1 km/h (3 Bft) 95,74 %
18.02.2022 04:18 7,6 C 6,7 C 3,9 C 90 % 1009,6 hPa 0,0 l/m 0 min 0 min 0 W/m 12,9 km/h (3 Bft) 93,48 %
18.02.2022 04:20 7,6 C 6,7 C 3,9 C 90 % 1009,6 hPa 0,0 l/m 0 min 0 min 0 W/m 16,1 km/h (3 Bft) 95,74 %
18.02.2022 04:22 7,6 C 6,7 C 3,9 C 90 % 1009,5 hPa 0,0 l/m 0 min 0 min 0 W/m 16,1 km/h (3 Bft) 93,62 %
18.02.2022 04:24 7,6 C 6,7 C 3,9 C 90 % 1009,4 hPa 0,0 l/m 0 min 0 min 0 W/m 16,1 km/h (3 Bft) 95,74 %
18.02.2022 04:26 7,6 C 6,7 C 3,9 C 90 % 1009,4 hPa 0,0 l/m 0 min 0 min 0 W/m 19,3 km/h (3 Bft) 95,74 %
18.02.2022 04:28 7,6 C 6,7 C 3,9 C 90 % 1009,3 hPa 0,0 l/m 0 min 0 min 0 W/m 9,7 km/h (2 Bft) 95,65 %
18.02.2022 04:30 7,6 C 6,7 C 3,9 C 90 % 1009,2 hPa 0,0 l/m 0 min 0 min 0 W/m 22,5 km/h (4 Bft) 93,62 %
18.02.2022 04:32 7,6 C 6,7 C 3,9 C 90 % 1009,1 hPa 0,0 l/m 0 min 0 min 0 W/m 16,1 km/h (3 Bft) 95,83 %
18.02.2022 04:34 7,6 C 6,7 C 3,9 C 90 % 1009,1 hPa 0,0 l/m 0 min 0 min 0 W/m 16,1 km/h (3 Bft) 95,74 %
18.02.2022 04:36 7,6 C 6,7 C 3,9 C 90 % 1009,1 hPa 0,0 l/m 0 min 0 min 0 W/m 16,1 km/h (3 Bft) 94,12 %
18.02.2022 04:38 7,6 C 6,7 C 3,9 C 90 % 1009,2 hPa 0,0 l/m 0 min 0 min 0 W/m 16,1 km/h (3 Bft) 95,74 %
18.02.2022 04:40 7,6 C 6,7 C 3,9 C 90 % 1009,0 hPa 0,0 l/m 0 min 0 min 0 W/m 6,4 km/h (2 Bft) 95,74 %
18.02.2022 04:42 7,6 C 6,7 C 3,9 C 90 % 1008,9 hPa 0,0 l/m 0 min 0 min 0 W/m 6,4 km/h (2 Bft) 95,65 %
18.02.2022 04:44 7,6 C 6,7 C 3,9 C 90 % 1008,9 hPa 0,0 l/m 0 min 0 min 0 W/m 9,7 km/h (2 Bft) 95,74 %
18.02.2022 04:46 7,6 C 6,7 C 3,9 C 90 % 1008,9 hPa 0,0 l/m 0 min 0 min 0 W/m 16,1 km/h (3 Bft) 93,62 %
18.02.2022 04:48 7,6 C 6,7 C 3,9 C 90 % 1008,9 hPa 0,0 l/m 0 min 0 min 0 W/m 9,7 km/h (2 Bft) 95,74 %
18.02.2022 04:50 7,6 C 6,7 C 3,3 C 90 % 1008,8 hPa 0,0 l/m 0 min 0 min 0 W/m 16,1 km/h (3 Bft) 95,74 %
18.02.2022 04:52 7,6 C 6,7 C 3,3 C 89 % 1008,8 hPa 0,0 l/m 0 min 0 min 0 W/m 6,4 km/h (2 Bft) 95,74 %
18.02.2022 04:54 7,6 C 6,7 C 3,3 C 89 % 1008,7 hPa 0,0 l/m 0 min 0 min 0 W/m 6,4 km/h (2 Bft) 97,83 %
18.02.2022 04:56 7,5 C 6,7 C 3,3 C 89 % 1008,7 hPa 0,0 l/m 0 min 0 min 0 W/m 6,4 km/h (2 Bft) 97,87 %
18.02.2022 04:58 7,5 C 6,7 C 3,3 C 89 % 1008,7 hPa 0,0 l/m 0 min 0 min 0 W/m 9,7 km/h (2 Bft) 97,87 %
18.02.2022 05:00 7,5 C 6,7 C 3,3 C 89 % 1008,7 hPa 0,0 l/m 0 min 0 min 0 W/m 9,7 km/h (2 Bft) 97,87 %
18.02.2022 05:02 7,5 C 6,7 C 3,3 C 89 % 1008,8 hPa 0,0 l/m 0 min 0 min 0 W/m 12,9 km/h (3 Bft) 97,73 %
18.02.2022 05:04 7,5 C 6,7 C 3,3 C 89 % 1008,7 hPa 0,0 l/m 0 min 0 min 0 W/m 16,1 km/h (3 Bft) 97,83 %
18.02.2022 05:06 7,5 C 6,7 C 3,3 C 89 % 1008,7 hPa 0,0 l/m 0 min 0 min 0 W/m 6,4 km/h (2 Bft) 100,00 %
18.02.2022 05:08 7,5 C 6,7 C 3,3 C 89 % 1008,6 hPa 0,0 l/m 0 min 0 min 0 W/m 12,9 km/h (3 Bft) 100,00 %
18.02.2022 05:10 7,4 C 6,7 C 3,3 C 89 % 1008,6 hPa 0,0 l/m 0 min 0 min 0 W/m 12,9 km/h (3 Bft) 97,87 %
18.02.2022 05:12 7,4 C 6,7 C 3,3 C 89 % 1008,6 hPa 0,0 l/m 0 min 0 min 0 W/m 9,7 km/h (2 Bft) 97,87 %
18.02.2022 05:14 7,4 C 6,7 C 3,3 C 89 % 1008,7 hPa 0,0 l/m 0 min 0 min 0 W/m 9,7 km/h (2 Bft) 97,83 %
18.02.2022 05:16 7,4 C 6,7 C 3,3 C 89 % 1008,7 hPa 0,0 l/m 0 min 0 min 0 W/m 6,4 km/h (2 Bft) 95,74 %
18.02.2022 05:18 7,4 C 6,7 C 3,3 C 89 % 1008,6 hPa 0,0 l/m 0 min 0 min 0 W/m 9,7 km/h (2 Bft) 97,87 %
18.02.2022 05:20 7,4 C 6,7 C 3,3 C 89 % 1008,5 hPa 0,0 l/m 0 min 0 min 0 W/m 9,7 km/h (2 Bft) 97,87 %
18.02.2022 05:22 7,4 C 6,7 C 3,3 C 89 % 1008,5 hPa 0,0 l/m 0 min 0 min 0 W/m 9,7 km/h (2 Bft) 97,87 %
18.02.2022 05:24 7,4 C 6,7 C 3,3 C 89 % 1008,4 hPa 0,0 l/m 0 min 0 min 0 W/m 6,4 km/h (2 Bft) 97,87 %
18.02.2022 05:26 7,4 C 6,7 C 3,3 C 89 % 1008,4 hPa 0,0 l/m 0 min 0 min 0 W/m 6,4 km/h (2 Bft) 97,87 %
18.02.2022 05:28 7,4 C 6,7 C 3,3 C 89 % 1008,4 hPa 0,0 l/m 0 min 0 min 0 W/m 6,4 km/h (2 Bft) 97,83 %
18.02.2022 05:30 7,4 C 6,7 C 3,3 C 89 % 1008,3 hPa 0,0 l/m 0 min 0 min 0 W/m 12,9 km/h (3 Bft) 95,74 %
18.02.2022 05:32 7,4 C 6,7 C 3,3 C 89 % 1008,2 hPa 0,0 l/m 0 min 0 min 0 W/m 6,4 km/h (2 Bft) 95,74 %
18.02.2022 05:34 7,4 C 6,7 C 3,3 C 89 % 1008,2 hPa 0,0 l/m 0 min 0 min 0 W/m 12,9 km/h (3 Bft) 97,87 %
18.02.2022 05:36 7,4 C 6,7 C 3,3 C 89 % 1008,1 hPa 0,0 l/m 0 min 0 min 0 W/m 12,9 km/h (3 Bft) 95,74 %
18.02.2022 05:38 7,4 C 6,7 C 3,3 C 89 % 1008,1 hPa 0,0 l/m 0 min 0 min 0 W/m 6,4 km/h (2 Bft) 97,83 %
18.02.2022 05:40 7,3 C 6,7 C 3,3 C 89 % 1008,0 hPa 0,0 l/m 0 min 0 min 0 W/m 6,4 km/h (2 Bft) 97,87 %
18.02.2022 05:42 7,3 C 6,7 C 3,3 C 89 % 1007,8 hPa 0,0 l/m 0 min 0 min 0 W/m 16,1 km/h (3 Bft) 100,00 %
18.02.2022 05:44 7,3 C 6,7 C 3,3 C 89 % 1007,6 hPa 0,0 l/m 0 min 0 min 0 W/m 16,1 km/h (3 Bft) 100,00 %
18.02.2022 05:46 7,3 C 6,1 C 3,3 C 89 % 1007,6 hPa 0,0 l/m 0 min 0 min 0 W/m 6,4 km/h (2 Bft) 100,00 %
18.02.2022 05:48 7,3 C 6,1 C 3,3 C 90 % 1007,6 hPa 0,0 l/m 0 min 0 min 0 W/m 12,9 km/h (3 Bft) 100,00 %
18.02.2022 05:50 7,3 C 6,1 C 3,3 C 90 % 1007,5 hPa 0,0 l/m 0 min 0 min 0 W/m 9,7 km/h (2 Bft) 100,00 %
18.02.2022 05:52 7,2 C 6,1 C 3,3 C 90 % 1007,5 hPa 0,0 l/m 0 min 0 min 0 W/m 12,9 km/h (3 Bft) 100,00 %
18.02.2022 05:54 7,2 C 6,1 C 3,3 C 90 % 1007,4 hPa 0,0 l/m 0 min 0 min 0 W/m 6,4 km/h (2 Bft) 100,00 %
18.02.2022 05:56 7,2 C 6,1 C 3,3 C 90 % 1007,3 hPa 0,0 l/m 0 min 0 min 0 W/m 12,9 km/h (3 Bft) 100,00 %
18.02.2022 05:58 7,2 C 6,1 C 3,3 C 90 % 1007,4 hPa 0,0 l/m 0 min 0 min 0 W/m 6,4 km/h (2 Bft) 97,87 %
18.02.2022 06:00 7,2 C 6,1 C 3,3 C 90 % 1007,2 hPa 0,0 l/m 0 min 0 min 0 W/m 12,9 km/h (3 Bft) 100,00 %
18.02.2022 06:02 7,2 C 6,1 C 3,3 C 90 % 1007,1 hPa 0,0 l/m 0 min 0 min 0 W/m 12,9 km/h (3 Bft) 100,00 %
18.02.2022 06:04 7,2 C 6,1 C 3,3 C 90 % 1007,1 hPa 0,0 l/m 0 min 0 min 0 W/m 12,9 km/h (3 Bft) 100,00 %
18.02.2022 06:06 7,1 C 6,1 C 3,3 C 90 % 1007,1 hPa 0,0 l/m 0 min 0 min 0 W/m 12,9 km/h (3 Bft) 97,87 %
18.02.2022 06:08 7,1 C 6,1 C 3,3 C 90 % 1007,1 hPa 0,0 l/m 0 min 0 min 0 W/m 12,9 km/h (3 Bft) 100,00 %
18.02.2022 06:10 7,1 C 6,7 C 3,3 C 90 % 1007,1 hPa 0,0 l/m 0 min 0 min 0 W/m 16,1 km/h (3 Bft) 97,87 %
18.02.2022 06:12 7,1 C 6,7 C 3,3 C 90 % 1006,9 hPa 0,0 l/m 0 min 0 min 0 W/m 16,1 km/h (3 Bft) 100,00 %
18.02.2022 06:14 7,1 C 6,7 C 3,3 C 90 % 1006,8 hPa 0,0 l/m 0 min 0 min 0 W/m 19,3 km/h (3 Bft) 100,00 %
18.02.2022 06:16 7,1 C 6,7 C 3,3 C 90 % 1006,8 hPa 0,0 l/m 0 min 0 min 0 W/m 16,1 km/h (3 Bft) 100,00 %
18.02.2022 06:18 7,1 C 6,7 C 3,3 C 90 % 1006,8 hPa 0,0 l/m 0 min 0 min 0 W/m 12,9 km/h (3 Bft) 100,00 %
18.02.2022 06:20 7,1 C 6,7 C 3,3 C 90 % 1006,7 hPa 0,0 l/m 0 min 0 min 0 W/m 12,9 km/h (3 Bft) 100,00 %
18.02.2022 06:22 7,1 C 6,7 C 3,3 C 90 % 1006,7 hPa 0,0 l/m 0 min 0 min 0 W/m 16,1 km/h (3 Bft) 100,00 %
18.02.2022 06:24 7,1 C 6,7 C 3,3 C 90 % 1006,5 hPa 0,0 l/m 0 min 0 min 0 W/m 12,9 km/h (3 Bft) 100,00 %
18.02.2022 06:26 7,1 C 6,7 C 3,3 C 90 % 1006,4 hPa 0,0 l/m 0 min 0 min 0 W/m 12,9 km/h (3 Bft) 100,00 %
18.02.2022 06:28 7,2 C 6,7 C 3,3 C 90 % 1006,2 hPa 0,0 l/m 0 min 0 min 0 W/m 16,1 km/h (3 Bft) 97,87 %
18.02.2022 06:30 7,2 C 6,7 C 3,3 C 90 % 1006,1 hPa 0,0 l/m 0 min 0 min 0 W/m 16,1 km/h (3 Bft) 100,00 %
18.02.2022 06:32 7,2 C 6,7 C 3,3 C 90 % 1006,1 hPa 0,0 l/m 0 min 0 min 0 W/m 16,1 km/h (3 Bft) 100,00 %
18.02.2022 06:34 7,2 C 6,7 C 3,3 C 90 % 1006,0 hPa 0,0 l/m 0 min 0 min 0 W/m 16,1 km/h (3 Bft) 97,87 %
18.02.2022 06:36 7,2 C 6,7 C 3,3 C 90 % 1006,1 hPa 0,0 l/m 0 min 0 min 0 W/m 16,1 km/h (3 Bft) 97,87 %
18.02.2022 06:38 7,2 C 6,7 C 3,3 C 90 % 1006,0 hPa 0,0 l/m 0 min 0 min 0 W/m 19,3 km/h (3 Bft) 100,00 %
18.02.2022 06:40 7,2 C 6,7 C 3,3 C 90 % 1006,0 hPa 0,0 l/m 0 min 0 min 0 W/m 16,1 km/h (3 Bft) 97,87 %
18.02.2022 06:42 7,2 C 6,7 C 3,3 C 90 % 1005,9 hPa 0,0 l/m 0 min 0 min 0 W/m 22,5 km/h (4 Bft) 100,00 %
18.02.2022 06:44 7,2 C 6,7 C 3,3 C 90 % 1005,9 hPa 0,0 l/m 0 min 0 min 0 W/m 22,5 km/h (4 Bft) 97,87 %
18.02.2022 06:46 7,2 C 6,7 C 3,3 C 90 % 1005,8 hPa 0,0 l/m 0 min 0 min 0 W/m 16,1 km/h (3 Bft) 97,87 %
18.02.2022 06:48 7,2 C 6,7 C 3,3 C 89 % 1005,8 hPa 0,0 l/m 0 min 2 min 0 W/m 19,3 km/h (3 Bft) 95,74 %
18.02.2022 06:50 7,2 C 6,7 C 3,3 C 89 % 1005,8 hPa 0,0 l/m 0 min 0 min 0 W/m 16,1 km/h (3 Bft) 97,83 %
18.02.2022 06:52 7,2 C 6,7 C 3,3 C 89 % 1005,8 hPa 0,0 l/m 0 min 0 min 0 W/m 19,3 km/h (3 Bft) 97,87 %
18.02.2022 06:56 7,2 C 6,7 C 3,3 C 89 % 1005,9 hPa 0,0 l/m 0 min 0 min 0 W/m 16,1 km/h (3 Bft) 98,11 %
18.02.2022 06:58 7,2 C 6,7 C 3,3 C 89 % 1005,8 hPa 0,0 l/m 0 min 0 min 0 W/m 16,1 km/h (3 Bft) 97,87 %
18.02.2022 07:00 7,2 C 6,7 C 3,3 C 89 % 1005,7 hPa 0,0 l/m 0 min 0 min 0 W/m 16,1 km/h (3 Bft) 97,87 %
18.02.2022 07:02 7,2 C 6,7 C 3,3 C 89 % 1005,6 hPa 0,0 l/m 0 min 0 min 0 W/m 22,5 km/h (4 Bft) 97,87 %
18.02.2022 07:04 7,2 C 6,7 C 3,3 C 89 % 1005,5 hPa 0,0 l/m 0 min 0 min 0 W/m 19,3 km/h (3 Bft) 95,65 %
18.02.2022 07:06 7,2 C 6,7 C 3,3 C 89 % 1005,4 hPa 0,0 l/m 0 min 0 min 0 W/m 22,5 km/h (4 Bft) 95,74 %
18.02.2022 07:08 7,2 C 6,7 C 3,3 C 88 % 1005,4 hPa 0,0 l/m 0 min 2 min 0 W/m 16,1 km/h (3 Bft) 95,74 %
18.02.2022 07:10 7,2 C 6,7 C 3,3 C 88 % 1005,4 hPa 0,0 l/m 0 min 0 min 0 W/m 12,9 km/h (3 Bft) 97,87 %
18.02.2022 07:12 7,2 C 6,7 C 3,3 C 88 % 1005,4 hPa 0,0 l/m 0 min 0 min 0 W/m 16,1 km/h (3 Bft) 91,49 %
18.02.2022 07:14 7,2 C 6,7 C 3,3 C 88 % 1005,3 hPa 0,0 l/m 0 min 2 min 0 W/m 16,1 km/h (3 Bft) 93,62 %
18.02.2022 07:16 7,3 C 6,7 C 3,3 C 89 % 1005,3 hPa 0,0 l/m 0 min 0 min 0 W/m 25,7 km/h (4 Bft) 91,30 %
18.02.2022 07:18 7,3 C 6,7 C 2,8 C 89 % 1005,2 hPa 0,0 l/m 0 min 2 min 0 W/m 22,5 km/h (4 Bft) 93,62 %
18.02.2022 07:20 7,3 C 6,7 C 2,8 C 89 % 1005,2 hPa 0,0 l/m 0 min 2 min 0 W/m 16,1 km/h (3 Bft) 93,62 %
18.02.2022 07:22 7,3 C 6,7 C 2,8 C 89 % 1005,1 hPa 0,0 l/m 0 min 2 min 0 W/m 19,3 km/h (3 Bft) 93,62 %
18.02.2022 07:24 7,3 C 6,7 C 2,8 C 89 % 1005,1 hPa 0,2 l/m 0 min 2 min 0 W/m 16,1 km/h (3 Bft) 93,62 %
18.02.2022 07:26 7,3 C 6,7 C 2,8 C 89 % 1005,0 hPa 0,0 l/m 0 min 2 min 0 W/m 19,3 km/h (3 Bft) 93,62 %
18.02.2022 07:28 7,3 C 6,1 C 2,8 C 89 % 1004,8 hPa 0,0 l/m 0 min 2 min 0 W/m 16,1 km/h (3 Bft) 93,48 %
18.02.2022 07:30 7,3 C 6,1 C 2,8 C 89 % 1004,8 hPa 0,0 l/m 0 min 2 min 0 W/m 22,5 km/h (4 Bft) 89,36 %
18.02.2022 07:32 7,3 C 6,1 C 2,8 C 90 % 1004,8 hPa 0,0 l/m 0 min 2 min 0 W/m 12,9 km/h (3 Bft) 93,62 %
18.02.2022 07:34 7,3 C 6,1 C 2,8 C 90 % 1004,7 hPa 0,0 l/m 0 min 2 min 0 W/m 22,5 km/h (4 Bft) 93,62 %
18.02.2022 07:36 7,2 C 6,1 C 2,8 C 90 % 1004,6 hPa 0,0 l/m 0 min 2 min 0 W/m 16,1 km/h (3 Bft) 93,62 %
18.02.2022 07:38 7,2 C 6,1 C 2,8 C 90 % 1004,5 hPa 0,0 l/m 0 min 2 min 0 W/m 12,9 km/h (3 Bft) 95,74 %
18.02.2022 07:40 7,2 C 6,1 C 2,8 C 90 % 1004,4 hPa 0,0 l/m 0 min 2 min 0 W/m 19,3 km/h (3 Bft) 97,83 %
18.02.2022 07:42 7,2 C 6,1 C 2,8 C 91 % 1004,2 hPa 0,0 l/m 0 min 0 min 0 W/m 16,1 km/h (3 Bft) 95,83 %
18.02.2022 07:44 7,2 C 6,1 C 2,8 C 91 % 1004,1 hPa 0,2 l/m 0 min 0 min 0 W/m 12,9 km/h (3 Bft) 97,87 %
18.02.2022 07:46 7,2 C 6,1 C 2,8 C 91 % 1004,1 hPa 0,0 l/m 0 min 0 min 0 W/m 16,1 km/h (3 Bft) 95,74 %
18.02.2022 07:48 7,2 C 6,1 C 2,8 C 91 % 1003,9 hPa 0,0 l/m 0 min 0 min 0 W/m 12,9 km/h (3 Bft) 97,87 %
18.02.2022 07:50 7,1 C 6,1 C 2,8 C 91 % 1003,9 hPa 0,0 l/m 0 min 0 min 0 W/m 12,9 km/h (3 Bft) 97,83 %
18.02.2022 07:52 7,1 C 6,1 C 2,8 C 91 % 1003,9 hPa 0,0 l/m 0 min 0 min 0 W/m 12,9 km/h (3 Bft) 97,87 %
18.02.2022 07:54 7,1 C 6,1 C 2,8 C 91 % 1003,9 hPa 0,0 l/m 0 min 0 min 0 W/m 16,1 km/h (3 Bft) 97,87 %
18.02.2022 07:56 7,1 C 6,1 C 2,8 C 92 % 1003,9 hPa 0,0 l/m 0 min 0 min 0 W/m 12,9 km/h (3 Bft) 97,87 %
18.02.2022 07:58 7,1 C 6,1 C 2,8 C 92 % 1003,8 hPa 0,0 l/m 0 min 0 min 0 W/m 22,5 km/h (4 Bft) 97,87 %
18.02.2022 08:00 7,1 C 6,1 C 2,8 C 92 % 1003,7 hPa 0,0 l/m 0 min 0 min 0 W/m 19,3 km/h (3 Bft) 97,87 %
18.02.2022 08:02 7,0 C 6,1 C 2,8 C 92 % 1003,7 hPa 0,0 l/m 0 min 0 min 0 W/m 22,5 km/h (4 Bft) 100,00 %
18.02.2022 08:04 7,0 C 6,1 C 2,8 C 92 % 1003,7 hPa 0,0 l/m 0 min 0 min 0 W/m 22,5 km/h (4 Bft) 100,00 %
18.02.2022 08:06 7,0 C 6,1 C 2,8 C 92 % 1003,7 hPa 0,0 l/m 0 min 0 min 0 W/m 19,3 km/h (3 Bft) 97,87 %
18.02.2022 08:08 6,9 C 6,1 C 2,8 C 92 % 1003,6 hPa 0,0 l/m 0 min 0 min 0 W/m 19,3 km/h (3 Bft) 100,00 %
18.02.2022 08:10 6,9 C 6,1 C 2,8 C 92 % 1003,5 hPa 0,0 l/m 0 min 0 min 0 W/m 19,3 km/h (3 Bft) 100,00 %
18.02.2022 08:12 6,9 C 6,1 C 2,8 C 93 % 1003,5 hPa 0,0 l/m 0 min 0 min 2 W/m 22,5 km/h (4 Bft) 100,00 %
18.02.2022 08:14 6,9 C 6,1 C 2,8 C 93 % 1003,5 hPa 0,0 l/m 0 min 0 min 6 W/m 25,7 km/h (4 Bft) 100,00 %
18.02.2022 08:16 6,9 C 6,1 C 2,8 C 93 % 1003,3 hPa 0,0 l/m 0 min 0 min 6 W/m 22,5 km/h (4 Bft) 97,96 %
18.02.2022 08:18 6,9 C 6,1 C 2,8 C 93 % 1003,3 hPa 0,0 l/m 0 min 0 min 5 W/m 19,3 km/h (3 Bft) 100,00 %
18.02.2022 08:20 6,9 C 6,7 C 2,8 C 93 % 1003,3 hPa 0,0 l/m 0 min 0 min 5 W/m 25,7 km/h (4 Bft) 100,00 %
18.02.2022 08:22 6,9 C 6,7 C 2,8 C 93 % 1003,3 hPa 0,0 l/m 0 min 0 min 5 W/m 19,3 km/h (3 Bft) 100,00 %
18.02.2022 08:24 7,0 C 6,7 C 2,8 C 93 % 1003,3 hPa 0,0 l/m 0 min 0 min 6 W/m 25,7 km/h (4 Bft) 100,00 %
18.02.2022 08:26 7,0 C 6,7 C 2,8 C 93 % 1003,2 hPa 0,0 l/m 0 min 0 min 7 W/m 19,3 km/h (3 Bft) 100,00 %
18.02.2022 08:28 7,0 C 6,7 C 2,8 C 93 % 1003,1 hPa 0,0 l/m 0 min 0 min 8 W/m 22,5 km/h (4 Bft) 100,00 %
18.02.2022 08:30 7,0 C 6,7 C 2,8 C 93 % 1003,0 hPa 0,0 l/m 0 min 0 min 9 W/m 22,5 km/h (4 Bft) 100,00 %
18.02.2022 08:32 7,0 C 6,7 C 2,8 C 93 % 1003,0 hPa 0,0 l/m 0 min 0 min 9 W/m 25,7 km/h (4 Bft) 100,00 %
18.02.2022 08:34 7,1 C 6,7 C 2,8 C 93 % 1003,0 hPa 0,0 l/m 0 min 0 min 9 W/m 22,5 km/h (4 Bft) 100,00 %
18.02.2022 08:36 7,1 C 6,7 C 2,8 C 93 % 1002,8 hPa 0,0 l/m 0 min 0 min 8 W/m 19,3 km/h (3 Bft) 100,00 %
18.02.2022 08:38 7,1 C 6,7 C 2,8 C 93 % 1002,8 hPa 0,0 l/m 0 min 0 min 10 W/m 19,3 km/h (3 Bft) 100,00 %
18.02.2022 08:40 7,1 C 6,7 C 2,8 C 93 % 1002,8 hPa 0,0 l/m 0 min 0 min 11 W/m 19,3 km/h (3 Bft) 100,00 %
18.02.2022 08:42 7,1 C 6,7 C 2,8 C 93 % 1002,7 hPa 0,0 l/m 0 min 0 min 10 W/m 19,3 km/h (3 Bft) 100,00 %
18.02.2022 08:43 7,1 C 6,7 C 2,8 C 93 % 1002,8 hPa 0,0 l/m 0 min 0 min 7 W/m 25,7 km/h (4 Bft) 97,87 %
18.02.2022 08:46 7,1 C 6,7 C 2,8 C 93 % 1002,6 hPa 0,0 l/m 0 min 0 min 9 W/m 22,5 km/h (4 Bft) 100,00 %
18.02.2022 08:48 7,1 C 6,7 C 2,8 C 93 % 1002,5 hPa 0,0 l/m 0 min 0 min 12 W/m 19,3 km/h (3 Bft) 100,00 %
18.02.2022 08:50 7,2 C 6,7 C 3,3 C 93 % 1002,4 hPa 0,0 l/m 0 min 0 min 14 W/m 16,1 km/h (3 Bft) 55,56 %
18.02.2022 08:52 7,2 C 6,7 C 3,3 C 93 % 1002,4 hPa 0,0 l/m 0 min 0 min 16 W/m 19,3 km/h (3 Bft) 100,00 %
18.02.2022 08:54 7,2 C 6,7 C 3,3 C 93 % 1002,3 hPa 0,0 l/m 0 min 0 min 17 W/m 16,1 km/h (3 Bft) 95,74 %
18.02.2022 08:56 7,2 C 6,7 C 3,3 C 93 % 1002,3 hPa 0,0 l/m 0 min 0 min 14 W/m 16,1 km/h (3 Bft) 100,00 %
18.02.2022 08:58 7,2 C 6,7 C 3,3 C 93 % 1002,3 hPa 0,0 l/m 0 min 0 min 11 W/m 12,9 km/h (3 Bft) 100,00 %
18.02.2022 09:00 7,3 C 6,7 C 3,3 C 93 % 1002,3 hPa 0,0 l/m 0 min 0 min 13 W/m 16,1 km/h (3 Bft) 97,87 %
18.02.2022 09:02 7,3 C 6,7 C 3,3 C 93 % 1002,1 hPa 0,0 l/m 0 min 0 min 16 W/m 19,3 km/h (3 Bft) 97,83 %
18.02.2022 09:04 7,3 C 6,7 C 3,3 C 93 % 1002,1 hPa 0,0 l/m 0 min 0 min 16 W/m 16,1 km/h (3 Bft) 95,74 %
18.02.2022 09:06 7,3 C 6,7 C 3,3 C 93 % 1002,1 hPa 0,0 l/m 0 min 0 min 17 W/m 16,1 km/h (3 Bft) 97,87 %
18.02.2022 09:08 7,3 C 6,7 C 3,3 C 93 % 1002,0 hPa 0,0 l/m 0 min 0 min 19 W/m 9,7 km/h (2 Bft) 97,87 %
18.02.2022 09:10 7,4 C 6,7 C 3,3 C 93 % 1002,0 hPa 0,0 l/m 0 min 0 min 21 W/m 16,1 km/h (3 Bft) 95,74 %
18.02.2022 09:12 7,4 C 7,2 C 3,3 C 93 % 1001,9 hPa 0,0 l/m 0 min 0 min 20 W/m 16,1 km/h (3 Bft) 95,74 %
18.02.2022 09:14 7,4 C 7,2 C 3,3 C 93 % 1001,8 hPa 0,0 l/m 0 min 0 min 19 W/m 16,1 km/h (3 Bft) 95,65 %
18.02.2022 09:16 7,4 C 7,2 C 3,3 C 93 % 1001,6 hPa 0,0 l/m 0 min 0 min 22 W/m 16,1 km/h (3 Bft) 93,62 %
18.02.2022 09:18 7,4 C 7,2 C 3,3 C 93 % 1001,7 hPa 0,0 l/m 0 min 0 min 26 W/m 16,1 km/h (3 Bft) 95,74 %
18.02.2022 09:20 7,5 C 7,2 C 3,3 C 93 % 1001,6 hPa 0,0 l/m 0 min 0 min 23 W/m 12,9 km/h (3 Bft) 93,62 %
18.02.2022 09:22 7,5 C 7,2 C 3,3 C 93 % 1001,6 hPa 0,0 l/m 0 min 2 min 20 W/m 12,9 km/h (3 Bft) 95,74 %
18.02.2022 09:24 7,6 C 7,2 C 3,3 C 93 % 1001,6 hPa 0,0 l/m 0 min 2 min 17 W/m 12,9 km/h (3 Bft) 97,87 %
18.02.2022 09:26 7,6 C 7,2 C 3,9 C 93 % 1001,7 hPa 0,0 l/m 0 min 2 min 16 W/m 19,3 km/h (3 Bft) 95,65 %
18.02.2022 09:28 7,6 C 7,2 C 3,9 C 93 % 1001,6 hPa 0,0 l/m 0 min 0 min 22 W/m 12,9 km/h (3 Bft) 95,74 %
18.02.2022 09:30 7,6 C 7,2 C 3,9 C 93 % 1001,6 hPa 0,0 l/m 0 min 0 min 17 W/m 16,1 km/h (3 Bft) 97,87 %
18.02.2022 09:32 7,7 C 7,2 C 3,9 C 93 % 1001,6 hPa 0,0 l/m 0 min 0 min 19 W/m 9,7 km/h (2 Bft) 97,62 %
18.02.2022 09:34 7,7 C 7,2 C 3,9 C 94 % 1001,4 hPa 0,0 l/m 0 min 0 min 28 W/m 6,4 km/h (2 Bft) 97,87 %
18.02.2022 09:36 7,8 C 7,8 C 3,9 C 94 % 1001,3 hPa 0,0 l/m 0 min 0 min 37 W/m 16,1 km/h (3 Bft) 95,74 %
18.02.2022 09:38 7,9 C 7,8 C 4,4 C 94 % 1001,1 hPa 0,0 l/m 0 min 0 min 33 W/m 9,7 km/h (2 Bft) 98,28 %
18.02.2022 09:40 7,9 C 7,8 C 4,4 C 94 % 1001,2 hPa 0,0 l/m 0 min 2 min 21 W/m 12,9 km/h (3 Bft) 97,14 %
18.02.2022 09:42 8,0 C 7,8 C 4,4 C 94 % 1001,2 hPa 0,0 l/m 0 min 2 min 20 W/m 9,7 km/h (2 Bft) 97,92 %
18.02.2022 09:44 8,1 C 7,8 C 4,4 C 94 % 1001,1 hPa 0,0 l/m 0 min 2 min 23 W/m 19,3 km/h (3 Bft) 97,87 %
18.02.2022 09:46 8,2 C 8,3 C 4,4 C 94 % 1001,0 hPa 0,0 l/m 0 min 2 min 22 W/m 12,9 km/h (3 Bft) 97,87 %
18.02.2022 09:48 8,3 C 8,3 C 4,4 C 94 % 1001,0 hPa 0,0 l/m 0 min 2 min 25 W/m 19,3 km/h (3 Bft) 100,00 %
18.02.2022 09:50 8,4 C 8,3 C 5,0 C 94 % 1001,0 hPa 0,0 l/m 0 min 0 min 24 W/m 12,9 km/h (3 Bft) 95,74 %
18.02.2022 09:52 8,5 C 8,3 C 5,0 C 94 % 1000,9 hPa 0,0 l/m 0 min 0 min 30 W/m 12,9 km/h (3 Bft) 100,00 %
18.02.2022 09:54 8,6 C 8,3 C 5,0 C 94 % 1000,9 hPa 0,0 l/m 0 min 0 min 36 W/m 16,1 km/h (3 Bft) 100,00 %
18.02.2022 09:56 8,7 C 8,3 C 5,0 C 94 % 1000,8 hPa 0,0 l/m 0 min 0 min 37 W/m 19,3 km/h (3 Bft) 100,00 %
18.02.2022 09:58 8,8 C 8,9 C 5,0 C 94 % 1000,9 hPa 0,0 l/m 0 min 0 min 41 W/m 16,1 km/h (3 Bft) 100,00 %
18.02.2022 10:00 8,9 C 8,9 C 5,0 C 94 % 1000,8 hPa 0,0 l/m 0 min 0 min 47 W/m 16,1 km/h (3 Bft) 97,87 %
18.02.2022 10:02 9,1 C 8,9 C 5,6 C 94 % 1000,8 hPa 0,0 l/m 0 min 0 min 46 W/m 12,9 km/h (3 Bft) 97,92 %
18.02.2022 10:04 9,1 C 8,9 C 5,6 C 94 % 1000,8 hPa 0,0 l/m 0 min 0 min 36 W/m 22,5 km/h (4 Bft) 100,00 %
18.02.2022 10:06 9,2 C 9,4 C 5,6 C 94 % 1000,8 hPa 0,0 l/m 0 min 0 min 34 W/m 22,5 km/h (4 Bft) 95,74 %
18.02.2022 10:08 9,3 C 9,4 C 5,6 C 94 % 1000,7 hPa 0,0 l/m 0 min 0 min 36 W/m 19,3 km/h (3 Bft) 100,00 %
18.02.2022 10:10 9,4 C 9,4 C 5,6 C 94 % 1000,7 hPa 0,0 l/m 0 min 0 min 33 W/m 12,9 km/h (3 Bft) 100,00 %
18.02.2022 10:12 9,6 C 9,4 C 5,6 C 94 % 1000,6 hPa 0,0 l/m 0 min 0 min 30 W/m 22,5 km/h (4 Bft) 100,00 %
18.02.2022 10:14 9,6 C 9,4 C 5,6 C 94 % 1000,5 hPa 0,0 l/m 0 min 0 min 36 W/m 22,5 km/h (4 Bft) 65,22 %
18.02.2022 10:16 9,7 C 9,4 C 5,6 C 94 % 1000,5 hPa 0,0 l/m 0 min 0 min 35 W/m 19,3 km/h (3 Bft) 86,05 %
18.02.2022 10:18 9,8 C 9,4 C 6,1 C 94 % 1000,4 hPa 0,0 l/m 0 min 0 min 39 W/m 19,3 km/h (3 Bft) 97,87 %
18.02.2022 10:20 9,8 C 9,4 C 6,1 C 94 % 1000,3 hPa 0,0 l/m 0 min 0 min 37 W/m 22,5 km/h (4 Bft) 97,87 %
18.02.2022 10:22 9,9 C 9,4 C 6,1 C 93 % 1000,3 hPa 0,0 l/m 0 min 0 min 31 W/m 19,3 km/h (3 Bft) 95,74 %
18.02.2022 10:24 9,9 C 9,4 C 6,1 C 94 % 1000,3 hPa 0,0 l/m 0 min 0 min 32 W/m 25,7 km/h (4 Bft) 97,83 %
18.02.2022 10:26 9,9 C 9,4 C 6,1 C 93 % 1000,2 hPa 0,0 l/m 0 min 0 min 32 W/m 19,3 km/h (3 Bft) 97,87 %
18.02.2022 10:28 10,0 C 9,4 C 6,1 C 93 % 1000,2 hPa 0,0 l/m 0 min 0 min 30 W/m 25,7 km/h (4 Bft) 95,74 %
18.02.2022 10:30 10,1 C 9,4 C 6,1 C 93 % 1000,3 hPa 0,0 l/m 0 min 0 min 31 W/m 22,5 km/h (4 Bft) 97,87 %
18.02.2022 10:32 10,1 C 10,0 C 6,1 C 93 % 1000,1 hPa 0,0 l/m 0 min 0 min 34 W/m 35,4 km/h (5 Bft) 97,96 %
18.02.2022 10:34 10,2 C 10,0 C 6,1 C 93 % 1000,1 hPa 0,0 l/m 0 min 0 min 41 W/m 22,5 km/h (4 Bft) 97,87 %
18.02.2022 10:36 10,2 C 10,0 C 6,7 C 93 % 1000,0 hPa 0,0 l/m 0 min 0 min 42 W/m 12,9 km/h (3 Bft) 97,83 %
18.02.2022 10:38 10,3 C 10,0 C 6,7 C 93 % 1000,0 hPa 0,0 l/m 0 min 0 min 43 W/m 19,3 km/h (3 Bft) 95,74 %
18.02.2022 10:40 10,3 C 10,0 C 6,7 C 93 % 999,9 hPa 0,0 l/m 0 min 0 min 42 W/m 12,9 km/h (3 Bft) 97,87 %
18.02.2022 10:42 10,4 C 10,0 C 6,7 C 92 % 999,9 hPa 0,0 l/m 0 min 0 min 35 W/m 16,1 km/h (3 Bft) 97,87 %
18.02.2022 10:44 10,4 C 10,0 C 6,7 C 93 % 999,8 hPa 0,0 l/m 0 min 0 min 44 W/m 25,7 km/h (4 Bft) 97,87 %
18.02.2022 10:46 10,5 C 10,0 C 6,7 C 92 % 999,7 hPa 0,0 l/m 0 min 0 min 43 W/m 35,4 km/h (5 Bft) 97,83 %
18.02.2022 10:48 10,6 C 10,6 C 6,7 C 92 % 999,6 hPa 0,0 l/m 0 min 0 min 39 W/m 29,0 km/h (5 Bft) 95,74 %
18.02.2022 10:50 10,7 C 10,6 C 7,2 C 92 % 999,7 hPa 0,0 l/m 0 min 0 min 45 W/m 16,1 km/h (3 Bft) 95,74 %
18.02.2022 10:52 10,8 C 10,6 C 7,2 C 92 % 999,6 hPa 0,0 l/m 0 min 0 min 49 W/m 35,4 km/h (5 Bft) 97,87 %
18.02.2022 10:54 10,8 C 10,6 C 7,2 C 92 % 999,5 hPa 0,0 l/m 0 min 0 min 45 W/m 25,7 km/h (4 Bft) 97,87 %
18.02.2022 10:56 10,9 C 10,6 C 7,2 C 91 % 999,5 hPa 0,0 l/m 0 min 0 min 46 W/m 32,2 km/h (5 Bft) 93,62 %
18.02.2022 10:58 11,0 C 10,6 C 7,2 C 91 % 999,5 hPa 0,0 l/m 0 min 0 min 52 W/m 29,0 km/h (5 Bft) 95,74 %
18.02.2022 11:00 11,1 C 10,6 C 7,2 C 91 % 999,5 hPa 0,0 l/m 0 min 0 min 47 W/m 25,7 km/h (4 Bft) 95,65 %
18.02.2022 11:02 11,1 C 10,6 C 7,2 C 91 % 999,4 hPa 0,0 l/m 0 min 0 min 44 W/m 35,4 km/h (5 Bft) 98,00 %
18.02.2022 11:04 11,2 C 11,1 C 7,2 C 90 % 999,4 hPa 0,0 l/m 0 min 0 min 42 W/m 35,4 km/h (5 Bft) 97,87 %
18.02.2022 11:06 11,4 C 11,1 C 7,8 C 90 % 999,4 hPa 0,0 l/m 0 min 0 min 43 W/m 38,6 km/h (5 Bft) 97,87 %
18.02.2022 11:08 11,4 C 11,1 C 7,8 C 90 % 999,4 hPa 0,0 l/m 0 min 0 min 41 W/m 29,0 km/h (5 Bft) 97,87 %
18.02.2022 11:10 11,6 C 11,1 C 7,8 C 89 % 999,3 hPa 0,0 l/m 0 min 0 min 37 W/m 32,2 km/h (5 Bft) 97,83 %
18.02.2022 11:12 11,6 C 11,1 C 7,8 C 89 % 999,3 hPa 0,0 l/m 0 min 0 min 39 W/m 25,7 km/h (4 Bft) 97,87 %
18.02.2022 11:14 11,7 C 11,1 C 7,8 C 89 % 999,3 hPa 0,0 l/m 0 min 0 min 38 W/m 35,4 km/h (5 Bft) 95,74 %
18.02.2022 11:16 11,7 C 11,1 C 7,8 C 89 % 999,3 hPa 0,0 l/m 0 min 0 min 39 W/m 32,2 km/h (5 Bft) 97,87 %
18.02.2022 11:18 11,8 C 11,1 C 7,8 C 88 % 999,2 hPa 0,0 l/m 0 min 0 min 42 W/m 41,8 km/h (6 Bft) 97,87 %
18.02.2022 11:20 11,8 C 11,1 C 7,8 C 88 % 999,2 hPa 0,0 l/m 0 min 0 min 49 W/m 32,2 km/h (5 Bft) 97,87 %
18.02.2022 11:22 11,8 C 11,1 C 7,8 C 88 % 999,0 hPa 0,0 l/m 0 min 0 min 50 W/m 35,4 km/h (5 Bft) 95,65 %
18.02.2022 11:24 11,9 C 11,7 C 7,8 C 88 % 998,8 hPa 0,0 l/m 0 min 0 min 50 W/m 51,5 km/h (7 Bft) 97,87 %
18.02.2022 11:26 11,9 C 11,7 C 7,8 C 88 % 998,9 hPa 0,0 l/m 0 min 0 min 47 W/m 51,5 km/h (7 Bft) 97,87 %
18.02.2022 11:28 12,0 C 11,7 C 7,8 C 87 % 998,9 hPa 0,0 l/m 0 min 0 min 45 W/m 41,8 km/h (6 Bft) 93,62 %
18.02.2022 11:30 12,1 C 11,7 C 7,8 C 87 % 998,9 hPa 0,0 l/m 0 min 0 min 43 W/m 70,8 km/h (8 Bft) 97,87 %
18.02.2022 11:32 12,1 C 11,7 C 7,8 C 87 % 998,8 hPa 0,0 l/m 0 min 0 min 38 W/m 32,2 km/h (5 Bft) 100,00 %
18.02.2022 11:34 12,1 C 11,7 C 7,8 C 87 % 998,7 hPa 0,0 l/m 0 min 0 min 37 W/m 25,7 km/h (4 Bft) 100,00 %
18.02.2022 11:36 12,1 C 11,7 C 7,8 C 87 % 998,8 hPa 0,0 l/m 0 min 0 min 38 W/m 35,4 km/h (5 Bft) 100,00 %
18.02.2022 11:38 12,1 C 11,7 C 7,8 C 87 % 998,7 hPa 0,0 l/m 0 min 0 min 35 W/m 48,3 km/h (6 Bft) 100,00 %
18.02.2022 11:40 12,1 C 11,7 C 8,3 C 87 % 998,7 hPa 0,0 l/m 0 min 0 min 42 W/m 38,6 km/h (5 Bft) 97,87 %
18.02.2022 11:42 12,2 C 11,7 C 8,3 C 86 % 998,7 hPa 0,0 l/m 0 min 0 min 47 W/m 51,5 km/h (7 Bft) 97,87 %
18.02.2022 11:44 12,2 C 11,7 C 8,3 C 86 % 998,6 hPa 0,0 l/m 0 min 0 min 48 W/m 41,8 km/h (6 Bft) 95,74 %
18.02.2022 11:46 12,3 C 11,7 C 8,3 C 86 % 998,6 hPa 0,0 l/m 0 min 0 min 52 W/m 45,1 km/h (6 Bft) 97,83 %
18.02.2022 11:48 12,3 C 11,7 C 8,3 C 86 % 998,5 hPa 0,0 l/m 0 min 0 min 61 W/m 35,4 km/h (5 Bft) 97,87 %
18.02.2022 11:50 12,3 C 11,7 C 8,3 C 86 % 998,4 hPa 0,0 l/m 0 min 0 min 62 W/m 41,8 km/h (6 Bft) 97,87 %
18.02.2022 11:52 12,3 C 11,7 C 8,3 C 86 % 998,3 hPa 0,0 l/m 0 min 0 min 61 W/m 35,4 km/h (5 Bft) 97,87 %
18.02.2022 11:54 12,3 C 11,7 C 8,3 C 86 % 998,2 hPa 0,0 l/m 0 min 0 min 68 W/m 41,8 km/h (6 Bft) 97,87 %
18.02.2022 11:56 12,3 C 11,7 C 8,3 C 86 % 998,2 hPa 0,0 l/m 0 min 0 min 72 W/m 25,7 km/h (4 Bft) 97,87 %
18.02.2022 11:58 12,3 C 11,7 C 8,3 C 86 % 998,3 hPa 0,0 l/m 0 min 0 min 59 W/m 32,2 km/h (5 Bft) 95,65 %
18.02.2022 12:00 12,3 C 11,7 C 8,3 C 86 % 998,2 hPa 0,0 l/m 0 min 0 min 58 W/m 35,4 km/h (5 Bft) 97,87 %
18.02.2022 12:02 12,4 C 11,7 C 8,3 C 86 % 998,2 hPa 0,0 l/m 0 min 0 min 68 W/m 32,2 km/h (5 Bft) 97,96 %
18.02.2022 12:04 12,4 C 11,7 C 8,3 C 86 % 998,1 hPa 0,0 l/m 0 min 0 min 84 W/m 38,6 km/h (5 Bft) 97,87 %
18.02.2022 12:08 12,4 C 11,7 C 8,3 C 86 % 998,0 hPa 0,0 l/m 0 min 0 min 71 W/m 57,9 km/h (7 Bft) 97,85 %
18.02.2022 12:10 12,4 C 11,7 C 8,3 C 86 % 998,0 hPa 0,0 l/m 0 min 0 min 70 W/m 35,4 km/h (5 Bft) 97,87 %
18.02.2022 12:12 12,5 C 11,7 C 8,3 C 86 % 997,9 hPa 0,0 l/m 0 min 0 min 75 W/m 41,8 km/h (6 Bft) 97,87 %
18.02.2022 12:14 12,5 C 11,7 C 8,3 C 86 % 997,9 hPa 0,0 l/m 0 min 0 min 71 W/m 29,0 km/h (5 Bft) 97,87 %
18.02.2022 12:16 12,5 C 11,7 C 8,3 C 86 % 997,8 hPa 0,0 l/m 0 min 0 min 68 W/m 45,1 km/h (6 Bft) 97,87 %
18.02.2022 12:18 12,5 C 11,7 C 8,3 C 86 % 997,8 hPa 0,0 l/m 0 min 0 min 72 W/m 41,8 km/h (6 Bft) 97,87 %
18.02.2022 12:20 12,5 C 12,2 C 8,3 C 86 % 997,6 hPa 0,0 l/m 0 min 0 min 76 W/m 48,3 km/h (6 Bft) 97,83 %
18.02.2022 12:22 12,5 C 12,2 C 8,3 C 86 % 997,5 hPa 0,0 l/m 0 min 0 min 83 W/m 38,6 km/h (5 Bft) 95,74 %
18.02.2022 12:24 12,5 C 12,2 C 8,3 C 86 % 997,6 hPa 0,0 l/m 0 min 0 min 88 W/m 25,7 km/h (4 Bft) 72,34 %
18.02.2022 12:26 12,5 C 12,2 C 8,3 C 86 % 997,4 hPa 0,0 l/m 0 min 0 min 94 W/m 38,6 km/h (5 Bft) 82,22 %
18.02.2022 12:28 12,5 C 12,2 C 8,3 C 86 % 997,3 hPa 0,0 l/m 0 min 0 min 91 W/m 32,2 km/h (5 Bft) 95,74 %
18.02.2022 12:30 12,5 C 11,7 C 8,3 C 86 % 997,2 hPa 0,0 l/m 0 min 0 min 83 W/m 38,6 km/h (5 Bft) 100,00 %
18.02.2022 12:32 12,5 C 12,2 C 8,3 C 86 % 997,2 hPa 0,0 l/m 0 min 0 min 91 W/m 41,8 km/h (6 Bft) 100,00 %
18.02.2022 12:34 12,5 C 12,2 C 8,3 C 86 % 997,0 hPa 0,0 l/m 0 min 0 min 91 W/m 51,5 km/h (7 Bft) 100,00 %
18.02.2022 12:36 12,5 C 12,2 C 8,3 C 86 % 996,9 hPa 0,0 l/m 0 min 0 min 99 W/m 32,2 km/h (5 Bft) 100,00 %
18.02.2022 12:38 12,6 C 12,2 C 8,9 C 86 % 996,9 hPa 0,0 l/m 0 min 0 min 124 W/m 51,5 km/h (7 Bft) 97,87 %
18.02.2022 12:40 12,6 C 12,2 C 8,9 C 86 % 996,8 hPa 0,0 l/m 0 min 0 min 158 W/m 25,7 km/h (4 Bft) 100,00 %
18.02.2022 12:42 12,6 C 12,2 C 8,9 C 86 % 996,7 hPa 0,0 l/m 0 min 0 min 172 W/m 38,6 km/h (5 Bft) 100,00 %
18.02.2022 12:44 12,7 C 12,2 C 8,9 C 85 % 996,7 hPa 0,0 l/m 0 min 0 min 124 W/m 38,6 km/h (5 Bft) 100,00 %
18.02.2022 12:46 12,7 C 12,2 C 8,9 C 85 % 996,6 hPa 0,0 l/m 0 min 0 min 138 W/m 41,8 km/h (6 Bft) 100,00 %
18.02.2022 12:48 12,7 C 12,2 C 8,9 C 85 % 996,6 hPa 0,0 l/m 0 min 0 min 151 W/m 51,5 km/h (7 Bft) 93,48 %
18.02.2022 12:50 12,7 C 12,2 C 8,9 C 85 % 996,5 hPa 0,0 l/m 0 min 0 min 139 W/m 38,6 km/h (5 Bft) 100,00 %
18.02.2022 12:52 12,7 C 12,2 C 8,9 C 85 % 996,5 hPa 0,0 l/m 0 min 0 min 132 W/m 48,3 km/h (6 Bft) 97,87 %
18.02.2022 12:54 12,8 C 12,2 C 8,9 C 85 % 996,5 hPa 0,0 l/m 0 min 0 min 147 W/m 45,1 km/h (6 Bft) 100,00 %
18.02.2022 12:56 12,8 C 12,2 C 8,9 C 85 % 996,5 hPa 0,0 l/m 0 min 0 min 145 W/m 35,4 km/h (5 Bft) 100,00 %
18.02.2022 12:58 12,8 C 12,2 C 8,9 C 85 % 996,3 hPa 0,0 l/m 0 min 0 min 154 W/m 41,8 km/h (6 Bft) 93,62 %
18.02.2022 13:00 12,8 C 12,2 C 8,9 C 85 % 996,4 hPa 0,0 l/m 0 min 0 min 137 W/m 32,2 km/h (5 Bft) 97,83 %
18.02.2022 13:02 12,8 C 12,8 C 8,9 C 85 % 996,3 hPa 0,0 l/m 0 min 0 min 179 W/m 32,2 km/h (5 Bft) 93,88 %
18.02.2022 13:04 12,9 C 12,8 C 9,4 C 85 % 996,3 hPa 0,0 l/m 0 min 0 min 208 W/m 45,1 km/h (6 Bft) 95,74 %
18.02.2022 13:06 12,9 C 12,8 C 9,4 C 85 % 996,1 hPa 0,0 l/m 0 min 0 min 190 W/m 38,6 km/h (5 Bft) 95,74 %
18.02.2022 13:08 12,9 C 12,8 C 9,4 C 84 % 996,1 hPa 0,0 l/m 0 min 0 min 174 W/m 54,7 km/h (7 Bft) 95,74 %
18.02.2022 13:10 13,0 C 12,8 C 9,4 C 84 % 996,2 hPa 0,0 l/m 0 min 0 min 131 W/m 35,4 km/h (5 Bft) 95,65 %
18.02.2022 13:12 13,1 C 12,8 C 9,4 C 84 % 996,0 hPa 0,0 l/m 0 min 0 min 126 W/m 38,6 km/h (5 Bft) 95,74 %
18.02.2022 13:14 13,1 C 12,8 C 9,4 C 84 % 996,0 hPa 0,0 l/m 0 min 0 min 142 W/m 38,6 km/h (5 Bft) 95,74 %
18.02.2022 13:16 13,1 C 12,8 C 9,4 C 84 % 995,9 hPa 0,0 l/m 0 min 0 min 146 W/m 61,2 km/h (7 Bft) 91,49 %
18.02.2022 13:18 13,1 C 12,8 C 9,4 C 83 % 995,8 hPa 0,0 l/m 0 min 0 min 150 W/m 45,1 km/h (6 Bft) 95,74 %
18.02.2022 13:20 13,1 C 12,8 C 9,4 C 83 % 995,8 hPa 0,0 l/m 0 min 0 min 144 W/m 45,1 km/h (6 Bft) 95,74 %
18.02.2022 13:22 13,1 C 12,8 C 9,4 C 83 % 995,7 hPa 0,0 l/m 0 min 0 min 163 W/m 61,2 km/h (7 Bft) 95,65 %
18.02.2022 13:24 13,1 C 12,8 C 9,4 C 83 % 995,6 hPa 0,0 l/m 2 min 0 min 259 W/m 54,7 km/h (7 Bft) 95,74 %
18.02.2022 13:26 13,1 C 13,3 C 9,4 C 83 % 995,7 hPa 0,0 l/m 2 min 0 min 289 W/m 57,9 km/h (7 Bft) 89,36 %
18.02.2022 13:28 13,2 C 13,3 C 9,4 C 83 % 995,5 hPa 0,0 l/m 2 min 0 min 246 W/m 48,3 km/h (6 Bft) 97,87 %
18.02.2022 13:30 13,2 C 12,8 C 9,4 C 83 % 995,6 hPa 0,0 l/m 0 min 0 min 186 W/m 61,2 km/h (7 Bft) 95,74 %
18.02.2022 13:32 13,2 C 12,8 C 9,4 C 83 % 995,5 hPa 0,0 l/m 0 min 0 min 164 W/m 45,1 km/h (6 Bft) 95,74 %
18.02.2022 13:34 13,2 C 12,8 C 9,4 C 83 % 995,5 hPa 0,0 l/m 0 min 0 min 147 W/m 54,7 km/h (7 Bft) 95,65 %
18.02.2022 13:36 13,2 C 12,8 C 9,4 C 83 % 995,5 hPa 0,0 l/m 0 min 0 min 132 W/m 51,5 km/h (7 Bft) 97,87 %
18.02.2022 13:38 13,2 C 12,8 C 9,4 C 83 % 995,2 hPa 0,0 l/m 0 min 0 min 155 W/m 45,1 km/h (6 Bft) 96,00 %
18.02.2022 13:40 13,1 C 12,8 C 9,4 C 83 % 995,3 hPa 0,0 l/m 0 min 0 min 138 W/m 51,5 km/h (7 Bft) 95,74 %
18.02.2022 13:42 13,1 C 12,8 C 9,4 C 83 % 995,3 hPa 0,0 l/m 0 min 0 min 145 W/m 57,9 km/h (7 Bft) 97,87 %
18.02.2022 13:44 13,2 C 12,8 C 9,4 C 83 % 995,3 hPa 0,0 l/m 0 min 0 min 165 W/m 41,8 km/h (6 Bft) 100,00 %
18.02.2022 13:46 13,2 C 12,8 C 9,4 C 83 % 995,2 hPa 0,0 l/m 0 min 0 min 146 W/m 51,5 km/h (7 Bft) 100,00 %
18.02.2022 13:48 13,2 C 12,8 C 9,4 C 83 % 995,0 hPa 0,0 l/m 0 min 0 min 102 W/m 54,7 km/h (7 Bft) 97,87 %
18.02.2022 13:50 13,2 C 12,8 C 9,4 C 83 % 994,6 hPa 0,0 l/m 0 min 2 min 175 W/m 51,5 km/h (7 Bft) 100,00 %
18.02.2022 13:52 13,2 C 12,2 C 8,9 C 84 % 994,8 hPa 0,0 l/m 0 min 2 min 144 W/m 48,3 km/h (6 Bft) 100,00 %
18.02.2022 13:54 13,2 C 12,2 C 8,3 C 84 % 994,8 hPa 0,0 l/m 0 min 2 min 107 W/m 54,7 km/h (7 Bft) 97,87 %
18.02.2022 13:56 13,1 C 12,2 C 8,3 C 85 % 994,8 hPa 0,0 l/m 0 min 2 min 122 W/m 32,2 km/h (5 Bft) 100,00 %
18.02.2022 13:58 13,1 C 12,8 C 8,3 C 84 % 994,6 hPa 0,0 l/m 0 min 2 min 133 W/m 61,2 km/h (7 Bft) 100,00 %
18.02.2022 14:00 13,1 C 12,8 C 8,3 C 84 % 994,6 hPa 0,0 l/m 0 min 2 min 128 W/m 64,4 km/h (8 Bft) 100,00 %
18.02.2022 14:02 13,1 C 12,2 C 8,9 C 85 % 994,6 hPa 0,0 l/m 0 min 2 min 197 W/m 45,1 km/h (6 Bft) 100,00 %
18.02.2022 14:04 13,1 C 12,2 C 8,9 C 85 % 994,5 hPa 0,0 l/m 0 min 2 min 199 W/m 48,3 km/h (6 Bft) 100,00 %
18.02.2022 14:06 13,1 C 12,2 C 8,3 C 85 % 994,5 hPa 0,0 l/m 0 min 2 min 146 W/m 48,3 km/h (6 Bft) 100,00 %
18.02.2022 14:08 13,0 C 12,8 C 8,9 C 85 % 994,4 hPa 0,0 l/m 0 min 2 min 160 W/m 45,1 km/h (6 Bft) 100,00 %
18.02.2022 14:10 13,1 C 12,2 C 8,3 C 85 % 994,4 hPa 0,0 l/m 0 min 2 min 147 W/m 38,6 km/h (5 Bft) 100,00 %
18.02.2022 14:12 13,0 C 12,8 C 8,3 C 85 % 994,2 hPa 0,0 l/m 0 min 2 min 141 W/m 35,4 km/h (5 Bft) 100,00 %
18.02.2022 14:14 13,0 C 12,2 C 8,3 C 86 % 994,3 hPa 0,0 l/m 0 min 2 min 143 W/m 64,4 km/h (8 Bft) 100,00 %
18.02.2022 14:16 12,9 C 12,2 C 8,3 C 86 % 994,4 hPa 0,0 l/m 0 min 2 min 112 W/m 70,8 km/h (8 Bft) 100,00 %
18.02.2022 14:18 12,9 C 12,2 C 8,3 C 86 % 994,2 hPa 0,0 l/m 0 min 2 min 98 W/m 67,6 km/h (8 Bft) 97,87 %
18.02.2022 14:20 12,8 C 12,2 C 8,3 C 86 % 994,2 hPa 0,0 l/m 0 min 2 min 103 W/m 67,6 km/h (8 Bft) 100,00 %
18.02.2022 14:22 12,7 C 12,2 C 8,3 C 87 % 994,0 hPa 0,0 l/m 0 min 2 min 151 W/m 64,4 km/h (8 Bft) 100,00 %
18.02.2022 14:24 12,7 C 12,2 C 8,3 C 87 % 993,8 hPa 0,0 l/m 2 min 2 min 215 W/m 48,3 km/h (6 Bft) 100,00 %
18.02.2022 14:26 12,7 C 12,8 C 8,3 C 87 % 993,6 hPa 0,0 l/m 2 min 2 min 247 W/m 48,3 km/h (6 Bft) 97,87 %
18.02.2022 14:28 12,7 C 12,8 C 8,9 C 87 % 993,5 hPa 0,0 l/m 0 min 2 min 198 W/m 67,6 km/h (8 Bft) 100,00 %
18.02.2022 14:30 12,8 C 12,8 C 8,9 C 87 % 993,4 hPa 0,0 l/m 2 min 0 min 207 W/m 41,8 km/h (6 Bft) 100,00 %
18.02.2022 14:32 12,9 C 13,3 C 8,9 C 86 % 993,3 hPa 0,0 l/m 2 min 0 min 205 W/m 35,4 km/h (5 Bft) 95,83 %
18.02.2022 14:34 13,0 C 13,3 C 9,4 C 86 % 993,3 hPa 0,0 l/m 2 min 2 min 252 W/m 54,7 km/h (7 Bft) 100,00 %
18.02.2022 14:36 13,1 C 13,9 C 9,4 C 85 % 993,2 hPa 0,0 l/m 2 min 2 min 234 W/m 38,6 km/h (5 Bft) 95,74 %
18.02.2022 14:38 13,2 C 13,9 C 9,4 C 85 % 993,2 hPa 0,0 l/m 2 min 2 min 316 W/m 54,7 km/h (7 Bft) 97,87 %
18.02.2022 14:40 13,3 C 13,3 C 9,4 C 84 % 993,2 hPa 0,0 l/m 2 min 2 min 266 W/m 64,4 km/h (8 Bft) 97,87 %
18.02.2022 14:42 13,3 C 13,3 C 9,4 C 84 % 993,0 hPa 0,0 l/m 0 min 0 min 163 W/m 35,4 km/h (5 Bft) 97,92 %
18.02.2022 14:44 13,4 C 13,3 C 9,4 C 84 % 993,1 hPa 0,0 l/m 0 min 2 min 126 W/m 61,2 km/h (7 Bft) 97,87 %
18.02.2022 14:46 13,4 C 12,8 C 9,4 C 83 % 993,1 hPa 0,0 l/m 0 min 2 min 109 W/m 45,1 km/h (6 Bft) 97,83 %
18.02.2022 14:48 13,4 C 12,8 C 9,4 C 83 % 993,1 hPa 0,0 l/m 0 min 0 min 97 W/m 41,8 km/h (6 Bft) 97,87 %
18.02.2022 14:50 13,4 C 12,8 C 9,4 C 83 % 992,9 hPa 0,0 l/m 0 min 0 min 91 W/m 38,6 km/h (5 Bft) 95,74 %
18.02.2022 14:52 13,4 C 12,8 C 9,4 C 83 % 992,9 hPa 0,0 l/m 0 min 0 min 99 W/m 54,7 km/h (7 Bft) 95,74 %
18.02.2022 14:54 13,5 C 12,8 C 9,4 C 82 % 992,9 hPa 0,0 l/m 0 min 2 min 76 W/m 51,5 km/h (7 Bft) 95,74 %
18.02.2022 14:56 13,5 C 12,8 C 9,4 C 83 % 993,0 hPa 0,0 l/m 0 min 0 min 85 W/m 41,8 km/h (6 Bft) 97,87 %
18.02.2022 14:58 13,5 C 12,8 C 9,4 C 83 % 992,8 hPa 0,0 l/m 0 min 2 min 57 W/m 48,3 km/h (6 Bft) 97,83 %
18.02.2022 15:00 13,4 C 12,8 C 8,9 C 83 % 992,9 hPa 0,0 l/m 0 min 2 min 40 W/m 48,3 km/h (6 Bft) 97,87 %
18.02.2022 15:02 13,4 C 12,2 C 8,3 C 84 % 993,7 hPa 0,2 l/m 0 min 2 min 18 W/m 35,4 km/h (5 Bft) 94,34 %
18.02.2022 15:04 12,9 C 10,0 C 7,2 C 86 % 994,0 hPa 0,8 l/m 0 min 2 min 24 W/m 41,8 km/h (6 Bft) 91,49 %
18.02.2022 15:06 12,0 C 8,9 C 6,1 C 86 % 994,3 hPa 0,2 l/m 0 min 2 min 37 W/m 54,7 km/h (7 Bft) 95,74 %
18.02.2022 15:08 11,4 C 8,3 C 5,6 C 87 % 994,2 hPa 0,0 l/m 0 min 2 min 44 W/m 29,0 km/h (5 Bft) 95,65 %
18.02.2022 15:10 10,9 C 8,3 C 5,6 C 87 % 994,3 hPa 0,0 l/m 0 min 2 min 57 W/m 32,2 km/h (5 Bft) 95,74 %
18.02.2022 15:12 10,7 C 8,9 C 5,6 C 88 % 994,3 hPa 0,0 l/m 0 min 2 min 59 W/m 70,8 km/h (8 Bft) 95,74 %
18.02.2022 15:14 10,5 C 9,4 C 5,6 C 87 % 994,4 hPa 0,0 l/m 0 min 2 min 66 W/m 32,2 km/h (5 Bft) 95,74 %
18.02.2022 15:16 10,4 C 9,4 C 5,6 C 87 % 994,4 hPa 0,2 l/m 0 min 2 min 67 W/m 61,2 km/h (7 Bft) 93,62 %
18.02.2022 15:18 10,3 C 9,4 C 5,6 C 88 % 994,5 hPa 0,0 l/m 0 min 2 min 61 W/m 38,6 km/h (5 Bft) 95,83 %
18.02.2022 15:20 10,3 C 9,4 C 5,6 C 88 % 994,3 hPa 0,0 l/m 0 min 2 min 62 W/m 51,5 km/h (7 Bft) 93,62 %
18.02.2022 15:22 10,3 C 9,4 C 5,6 C 88 % 994,4 hPa 0,0 l/m 0 min 2 min 66 W/m 41,8 km/h (6 Bft) 97,92 %
18.02.2022 15:24 10,2 C 9,4 C 5,0 C 87 % 994,3 hPa 0,0 l/m 0 min 2 min 58 W/m 48,3 km/h (6 Bft) 97,14 %
18.02.2022 15:26 10,2 C 9,4 C 5,0 C 87 % 994,3 hPa 0,0 l/m 0 min 2 min 50 W/m 54,7 km/h (7 Bft) 95,74 %
18.02.2022 15:28 10,2 C 9,4 C 5,0 C 86 % 994,3 hPa 0,0 l/m 0 min 2 min 51 W/m 25,7 km/h (4 Bft) 97,87 %
18.02.2022 15:30 10,2 C 8,9 C 5,0 C 85 % 994,3 hPa 0,0 l/m 0 min 2 min 55 W/m 74,0 km/h (8 Bft) 95,83 %
18.02.2022 15:32 10,2 C 8,9 C 5,0 C 85 % 994,1 hPa 0,0 l/m 0 min 2 min 55 W/m 38,6 km/h (5 Bft) 97,92 %
18.02.2022 15:34 10,2 C 8,9 C 5,0 C 85 % 994,1 hPa 0,0 l/m 0 min 0 min 45 W/m 32,2 km/h (5 Bft) 100,00 %
18.02.2022 15:36 10,1 C 8,9 C 5,0 C 84 % 993,9 hPa 0,0 l/m 0 min 0 min 41 W/m 41,8 km/h (6 Bft) 100,00 %
18.02.2022 15:38 10,1 C 8,9 C 4,4 C 84 % 993,7 hPa 0,0 l/m 0 min 0 min 41 W/m 54,7 km/h (7 Bft) 100,00 %
18.02.2022 15:40 10,2 C 8,9 C 4,4 C 82 % 993,5 hPa 0,0 l/m 0 min 0 min 43 W/m 77,2 km/h (9 Bft) 100,00 %
18.02.2022 15:42 10,2 C 8,9 C 4,4 C 81 % 993,3 hPa 0,0 l/m 0 min 0 min 41 W/m 35,4 km/h (5 Bft) 100,00 %
18.02.2022 15:44 10,3 C 8,9 C 4,4 C 80 % 993,2 hPa 0,0 l/m 0 min 0 min 45 W/m 51,5 km/h (7 Bft) 100,00 %
18.02.2022 15:46 10,3 C 9,4 C 4,4 C 79 % 993,3 hPa 0,0 l/m 0 min 0 min 41 W/m 35,4 km/h (5 Bft) 97,87 %
18.02.2022 15:48 10,3 C 9,4 C 4,4 C 79 % 993,3 hPa 0,0 l/m 0 min 0 min 43 W/m 57,9 km/h (7 Bft) 97,87 %
18.02.2022 15:50 10,4 C 9,4 C 4,4 C 79 % 993,4 hPa 0,0 l/m 0 min 0 min 50 W/m 41,8 km/h (6 Bft) 97,87 %
18.02.2022 15:52 10,4 C 9,4 C 4,4 C 78 % 993,3 hPa 0,0 l/m 0 min 0 min 49 W/m 41,8 km/h (6 Bft) 97,87 %
18.02.2022 15:54 10,4 C 9,4 C 4,4 C 77 % 993,2 hPa 0,0 l/m 0 min 0 min 51 W/m 57,9 km/h (7 Bft) 97,87 %
18.02.2022 15:56 10,4 C 10,0 C 4,4 C 77 % 993,4 hPa 0,0 l/m 0 min 0 min 47 W/m 45,1 km/h (6 Bft) 97,83 %
18.02.2022 15:58 10,5 C 10,0 C 4,4 C 76 % 993,5 hPa 0,0 l/m 0 min 0 min 47 W/m 41,8 km/h (6 Bft) 97,87 %
18.02.2022 16:00 10,6 C 10,0 C 4,4 C 75 % 993,3 hPa 0,0 l/m 0 min 0 min 54 W/m 54,7 km/h (7 Bft) 97,87 %
18.02.2022 16:02 10,6 C 10,0 C 4,4 C 75 % 993,5 hPa 0,0 l/m 0 min 0 min 62 W/m 29,0 km/h (5 Bft) 98,18 %
18.02.2022 16:04 10,6 C 10,0 C 4,4 C 75 % 993,5 hPa 0,0 l/m 0 min 0 min 65 W/m 29,0 km/h (5 Bft) 95,74 %
18.02.2022 16:06 10,6 C 10,0 C 4,4 C 72 % 993,6 hPa 0,0 l/m 0 min 0 min 67 W/m 54,7 km/h (7 Bft) 93,48 %
18.02.2022 16:08 10,7 C 10,0 C 4,4 C 72 % 993,5 hPa 0,0 l/m 0 min 0 min 71 W/m 57,9 km/h (7 Bft) 97,87 %
18.02.2022 16:10 10,7 C 10,0 C 5,0 C 72 % 993,4 hPa 0,0 l/m 0 min 0 min 76 W/m 32,2 km/h (5 Bft) 95,74 %
18.02.2022 16:12 10,7 C 10,0 C 5,6 C 72 % 993,6 hPa 0,0 l/m 0 min 0 min 89 W/m 45,1 km/h (6 Bft) 95,74 %
18.02.2022 16:14 10,7 C 10,0 C 5,6 C 71 % 993,5 hPa 0,0 l/m 0 min 0 min 96 W/m 32,2 km/h (5 Bft) 97,87 %
18.02.2022 16:16 10,7 C 10,0 C 6,1 C 72 % 993,6 hPa 0,0 l/m 0 min 0 min 105 W/m 57,9 km/h (7 Bft) 97,87 %
18.02.2022 16:18 10,8 C 10,6 C 6,1 C 71 % 993,7 hPa 0,0 l/m 0 min 0 min 107 W/m 45,1 km/h (6 Bft) 94,44 %
18.02.2022 16:20 10,8 C 10,6 C 6,1 C 70 % 993,6 hPa 0,0 l/m 2 min 0 min 114 W/m 51,5 km/h (7 Bft) 97,83 %
18.02.2022 16:22 10,8 C 10,6 C 6,1 C 70 % 993,7 hPa 0,0 l/m 2 min 0 min 114 W/m 35,4 km/h (5 Bft) 97,87 %
18.02.2022 16:24 10,9 C 10,6 C 6,1 C 70 % 993,7 hPa 0,0 l/m 2 min 0 min 153 W/m 48,3 km/h (6 Bft) 97,87 %
18.02.2022 16:26 10,9 C 10,6 C 6,1 C 69 % 993,6 hPa 0,0 l/m 0 min 0 min 83 W/m 51,5 km/h (7 Bft) 97,87 %
18.02.2022 16:28 10,9 C 10,6 C 6,1 C 68 % 993,6 hPa 0,0 l/m 0 min 0 min 57 W/m 54,7 km/h (7 Bft) 95,74 %
18.02.2022 16:30 11,0 C 10,6 C 6,1 C 68 % 993,7 hPa 0,0 l/m 0 min 0 min 53 W/m 41,8 km/h (6 Bft) 95,74 %
18.02.2022 16:32 11,0 C 10,6 C 6,1 C 68 % 993,6 hPa 0,0 l/m 0 min 0 min 54 W/m 45,1 km/h (6 Bft) 97,92 %
18.02.2022 16:34 11,0 C 10,6 C 6,1 C 68 % 993,6 hPa 0,0 l/m 0 min 0 min 47 W/m 48,3 km/h (6 Bft) 95,74 %
18.02.2022 16:36 10,9 C 10,6 C 6,1 C 68 % 993,7 hPa 0,0 l/m 0 min 0 min 52 W/m 41,8 km/h (6 Bft) 91,49 %
18.02.2022 16:38 10,9 C 10,0 C 6,1 C 67 % 993,6 hPa 0,0 l/m 0 min 0 min 49 W/m 41,8 km/h (6 Bft) 97,87 %
18.02.2022 16:40 10,9 C 10,6 C 6,1 C 67 % 993,4 hPa 0,0 l/m 0 min 0 min 56 W/m 54,7 km/h (7 Bft) 97,87 %
18.02.2022 16:42 10,9 C 10,6 C 6,1 C 67 % 993,6 hPa 0,0 l/m 0 min 0 min 75 W/m 35,4 km/h (5 Bft) 100,00 %
18.02.2022 16:44 10,9 C 10,6 C 6,1 C 68 % 993,6 hPa 0,0 l/m 0 min 0 min 65 W/m 35,4 km/h (5 Bft) 100,00 %
18.02.2022 16:46 10,9 C 10,6 C 6,1 C 67 % 993,6 hPa 0,0 l/m 0 min 0 min 61 W/m 70,8 km/h (8 Bft) 95,74 %
18.02.2022 16:48 10,8 C 10,0 C 6,1 C 67 % 993,7 hPa 0,0 l/m 0 min 0 min 51 W/m 38,6 km/h (5 Bft) 100,00 %
18.02.2022 16:50 10,8 C 10,0 C 6,7 C 67 % 993,6 hPa 0,0 l/m 0 min 0 min 49 W/m 48,3 km/h (6 Bft) 100,00 %
18.02.2022 16:52 10,8 C 10,0 C 6,7 C 67 % 993,7 hPa 0,0 l/m 0 min 0 min 45 W/m 70,8 km/h (8 Bft) 97,87 %
18.02.2022 16:54 10,8 C 10,0 C 6,7 C 67 % 993,6 hPa 0,0 l/m 0 min 0 min 52 W/m 32,2 km/h (5 Bft) 97,87 %
18.02.2022 16:56 10,8 C 10,0 C 6,7 C 67 % 993,5 hPa 0,0 l/m 0 min 0 min 60 W/m 74,0 km/h (8 Bft) 95,65 %
18.02.2022 16:58 10,8 C 10,6 C 6,7 C 66 % 993,5 hPa 0,0 l/m 0 min 0 min 54 W/m 70,8 km/h (8 Bft) 97,87 %
18.02.2022 17:00 10,9 C 10,0 C 6,7 C 66 % 993,3 hPa 0,0 l/m 0 min 0 min 42 W/m 41,8 km/h (6 Bft) 97,87 %
18.02.2022 17:02 10,9 C 10,0 C 6,7 C 66 % 993,3 hPa 0,0 l/m 0 min 0 min 33 W/m 35,4 km/h (5 Bft) 96,23 %
18.02.2022 17:04 10,8 C 10,0 C 6,7 C 66 % 993,3 hPa 0,0 l/m 0 min 0 min 48 W/m 48,3 km/h (6 Bft) 100,00 %
18.02.2022 17:06 10,8 C 10,0 C 6,7 C 66 % 993,2 hPa 0,0 l/m 0 min 0 min 49 W/m 48,3 km/h (6 Bft) 95,65 %
18.02.2022 17:08 10,8 C 10,0 C 6,7 C 67 % 993,2 hPa 0,0 l/m 0 min 0 min 39 W/m 38,6 km/h (5 Bft) 52,27 %
18.02.2022 17:10 10,8 C 10,0 C 6,7 C 67 % 993,4 hPa 0,0 l/m 0 min 0 min 36 W/m 48,3 km/h (6 Bft) 95,74 %
18.02.2022 17:12 10,8 C 10,0 C 6,7 C 66 % 993,0 hPa 0,0 l/m 0 min 0 min 32 W/m 57,9 km/h (7 Bft) 93,62 %
18.02.2022 17:14 10,8 C 10,0 C 6,7 C 66 % 993,2 hPa 0,0 l/m 0 min 0 min 32 W/m 35,4 km/h (5 Bft) 95,74 %
18.02.2022 17:16 10,8 C 10,0 C 6,7 C 67 % 993,3 hPa 0,0 l/m 0 min 0 min 32 W/m 54,7 km/h (7 Bft) 95,74 %
18.02.2022 17:18 10,7 C 10,0 C 6,1 C 67 % 993,3 hPa 0,0 l/m 0 min 0 min 32 W/m 35,4 km/h (5 Bft) 95,65 %
18.02.2022 17:20 10,7 C 10,0 C 6,1 C 67 % 993,3 hPa 0,0 l/m 0 min 0 min 21 W/m 38,6 km/h (5 Bft) 93,62 %
18.02.2022 17:22 10,7 C 10,0 C 6,1 C 67 % 993,4 hPa 0,0 l/m 0 min 0 min 25 W/m 61,2 km/h (7 Bft) 95,74 %
18.02.2022 17:24 10,7 C 10,0 C 6,1 C 67 % 993,1 hPa 0,0 l/m 0 min 0 min 32 W/m 48,3 km/h (6 Bft) 95,74 %
18.02.2022 17:26 10,7 C 10,0 C 6,7 C 66 % 993,5 hPa 0,0 l/m 0 min 0 min 22 W/m 67,6 km/h (8 Bft) 95,74 %
18.02.2022 17:28 10,7 C 10,0 C 6,7 C 66 % 993,3 hPa 0,0 l/m 0 min 0 min 16 W/m 61,2 km/h (7 Bft) 95,65 %
18.02.2022 17:30 10,8 C 10,0 C 6,7 C 66 % 993,5 hPa 0,0 l/m 0 min 0 min 16 W/m 48,3 km/h (6 Bft) 95,83 %
18.02.2022 17:32 10,8 C 10,0 C 6,7 C 65 % 993,3 hPa 0,0 l/m 0 min 0 min 12 W/m 61,2 km/h (7 Bft) 97,92 %
18.02.2022 17:34 10,8 C 10,0 C 6,7 C 65 % 993,3 hPa 0,0 l/m 0 min 0 min 11 W/m 74,0 km/h (8 Bft) 97,87 %
18.02.2022 17:36 10,8 C 10,0 C 6,1 C 65 % 993,3 hPa 0,0 l/m 0 min 0 min 11 W/m 41,8 km/h (6 Bft) 97,87 %
18.02.2022 17:38 10,8 C 10,0 C 6,1 C 65 % 993,3 hPa 0,0 l/m 0 min 0 min 8 W/m 61,2 km/h (7 Bft) 95,74 %
18.02.2022 17:40 10,8 C 10,0 C 6,1 C 66 % 993,3 hPa 0,0 l/m 0 min 0 min 9 W/m 45,1 km/h (6 Bft) 97,83 %
18.02.2022 17:42 10,7 C 10,0 C 6,1 C 65 % 993,3 hPa 0,0 l/m 0 min 0 min 9 W/m 64,4 km/h (8 Bft) 97,87 %
18.02.2022 17:44 10,7 C 10,0 C 6,1 C 66 % 993,3 hPa 0,0 l/m 0 min 0 min 6 W/m 38,6 km/h (5 Bft) 97,87 %
18.02.2022 17:46 10,7 C 10,0 C 6,1 C 65 % 993,6 hPa 0,0 l/m 0 min 0 min 5 W/m 54,7 km/h (7 Bft) 97,87 %
18.02.2022 17:48 10,7 C 10,0 C 6,1 C 65 % 993,3 hPa 0,0 l/m 0 min 0 min 4 W/m 57,9 km/h (7 Bft) 95,74 %
18.02.2022 17:50 10,7 C 10,0 C 6,1 C 65 % 993,3 hPa 0,0 l/m 0 min 0 min 0 W/m 41,8 km/h (6 Bft) 97,87 %
18.02.2022 17:52 10,7 C 10,0 C 6,7 C 64 % 993,4 hPa 0,0 l/m 0 min 0 min 0 W/m 54,7 km/h (7 Bft) 100,00 %
18.02.2022 17:54 10,8 C 10,0 C 6,7 C 63 % 993,5 hPa 0,0 l/m 0 min 0 min 0 W/m 77,2 km/h (9 Bft) 100,00 %
18.02.2022 17:56 10,8 C 10,0 C 6,7 C 63 % 993,5 hPa 0,0 l/m 0 min 0 min 0 W/m 67,6 km/h (8 Bft) 100,00 %
18.02.2022 17:58 10,8 C 10,0 C 6,7 C 63 % 993,8 hPa 0,0 l/m 0 min 0 min 0 W/m 45,1 km/h (6 Bft) 97,87 %
18.02.2022 18:00 10,8 C 10,0 C 6,7 C 62 % 993,9 hPa 0,0 l/m 0 min 0 min 0 W/m 70,8 km/h (8 Bft) 100,00 %
18.02.2022 18:02 10,8 C 10,0 C 6,1 C 63 % 993,9 hPa 0,0 l/m 0 min 0 min 0 W/m 38,6 km/h (5 Bft) 100,00 %
18.02.2022 18:04 10,7 C 10,0 C 6,1 C 62 % 994,1 hPa 0,0 l/m 0 min 0 min 0 W/m 35,4 km/h (5 Bft) 100,00 %
18.02.2022 18:08 10,7 C 10,0 C 6,1 C 61 % 994,2 hPa 0,0 l/m 0 min 0 min 0 W/m 54,7 km/h (7 Bft) 100,00 %
18.02.2022 18:10 10,7 C 10,0 C 6,1 C 60 % 994,8 hPa 0,0 l/m 0 min 0 min 0 W/m 54,7 km/h (7 Bft) 100,00 %
18.02.2022 18:12 10,7 C 10,0 C 6,1 C 59 % 994,7 hPa 0,0 l/m 0 min 0 min 0 W/m 48,3 km/h (6 Bft) 100,00 %
18.02.2022 18:14 10,7 C 10,0 C 6,1 C 59 % 994,5 hPa 0,0 l/m 0 min 0 min 0 W/m 57,9 km/h (7 Bft) 100,00 %
18.02.2022 18:16 10,6 C 10,0 C 6,1 C 59 % 994,4 hPa 0,0 l/m 0 min 0 min 0 W/m 38,6 km/h (5 Bft) 100,00 %
18.02.2022 18:18 10,6 C 9,4 C 6,1 C 59 % 994,6 hPa 0,0 l/m 0 min 0 min 0 W/m 45,1 km/h (6 Bft) 100,00 %
18.02.2022 18:20 10,5 C 9,4 C 6,1 C 58 % 994,9 hPa 0,0 l/m 0 min 0 min 0 W/m 54,7 km/h (7 Bft) 100,00 %
18.02.2022 18:22 10,4 C 9,4 C 6,1 C 58 % 995,0 hPa 0,0 l/m 0 min 0 min 0 W/m 57,9 km/h (7 Bft) 100,00 %
18.02.2022 18:24 10,4 C 9,4 C 6,1 C 58 % 995,0 hPa 0,0 l/m 0 min 0 min 0 W/m 41,8 km/h (6 Bft) 100,00 %
18.02.2022 18:26 10,4 C 9,4 C 6,1 C 59 % 995,1 hPa 0,0 l/m 0 min 0 min 0 W/m 51,5 km/h (7 Bft) 97,87 %
18.02.2022 18:28 10,3 C 9,4 C 5,6 C 60 % 995,2 hPa 0,0 l/m 0 min 0 min 0 W/m 64,4 km/h (8 Bft) 100,00 %
18.02.2022 18:30 10,2 C 9,4 C 5,6 C 60 % 995,2 hPa 0,0 l/m 0 min 0 min 0 W/m 45,1 km/h (6 Bft) 100,00 %
18.02.2022 18:32 10,2 C 9,4 C 5,6 C 61 % 995,4 hPa 0,0 l/m 0 min 0 min 0 W/m 54,7 km/h (7 Bft) 100,00 %
18.02.2022 18:34 10,1 C 9,4 C 5,6 C 61 % 995,2 hPa 0,0 l/m 0 min 0 min 0 W/m 48,3 km/h (6 Bft) 97,87 %
18.02.2022 18:36 10,1 C 9,4 C 5,6 C 61 % 995,7 hPa 0,0 l/m 0 min 0 min 0 W/m 51,5 km/h (7 Bft) 97,87 %
18.02.2022 18:38 10,1 C 9,4 C 5,6 C 61 % 995,5 hPa 0,0 l/m 0 min 0 min 0 W/m 54,7 km/h (7 Bft) 100,00 %
18.02.2022 18:40 10,1 C 9,4 C 5,6 C 61 % 995,9 hPa 0,0 l/m 0 min 0 min 0 W/m 54,7 km/h (7 Bft) 100,00 %
18.02.2022 18:42 10,0 C 9,4 C 5,6 C 61 % 995,9 hPa 0,0 l/m 0 min 0 min 0 W/m 70,8 km/h (8 Bft) 95,83 %
18.02.2022 18:44 9,9 C 8,9 C 5,6 C 62 % 995,9 hPa 0,0 l/m 0 min 0 min 0 W/m 45,1 km/h (6 Bft) 97,87 %
18.02.2022 18:46 9,9 C 8,9 C 5,6 C 62 % 996,0 hPa 0,0 l/m 0 min 0 min 0 W/m 38,6 km/h (5 Bft) 97,87 %
18.02.2022 18:48 9,8 C 8,9 C 5,6 C 62 % 996,3 hPa 0,0 l/m 0 min 0 min 0 W/m 54,7 km/h (7 Bft) 97,87 %
18.02.2022 18:50 9,8 C 8,9 C 5,6 C 61 % 996,1 hPa 0,0 l/m 0 min 0 min 0 W/m 61,2 km/h (7 Bft) 97,22 %
18.02.2022 18:52 9,8 C 8,9 C 5,6 C 61 % 996,5 hPa 0,0 l/m 0 min 0 min 0 W/m 61,2 km/h (7 Bft) 97,87 %
18.02.2022 18:54 9,8 C 8,9 C 5,6 C 61 % 996,3 hPa 0,0 l/m 0 min 0 min 0 W/m 45,1 km/h (6 Bft) 97,87 %
18.02.2022 18:56 9,7 C 8,9 C 5,6 C 61 % 996,0 hPa 0,0 l/m 0 min 0 min 0 W/m 51,5 km/h (7 Bft) 93,48 %
18.02.2022 18:58 9,7 C 8,9 C 5,6 C 61 % 996,5 hPa 0,0 l/m 0 min 0 min 0 W/m 38,6 km/h (5 Bft) 95,74 %
18.02.2022 19:00 9,7 C 8,9 C 5,6 C 62 % 996,7 hPa 0,0 l/m 0 min 0 min 0 W/m 57,9 km/h (7 Bft) 93,62 %
18.02.2022 19:02 9,7 C 8,9 C 5,6 C 61 % 996,6 hPa 0,0 l/m 0 min 0 min 0 W/m 45,1 km/h (6 Bft) 94,00 %
18.02.2022 19:04 9,7 C 8,9 C 5,6 C 61 % 996,8 hPa 0,0 l/m 0 min 0 min 0 W/m 41,8 km/h (6 Bft) 63,83 %
18.02.2022 19:06 9,7 C 8,9 C 5,0 C 61 % 996,7 hPa 0,0 l/m 0 min 0 min 0 W/m 51,5 km/h (7 Bft) 88,10 %
18.02.2022 19:08 9,7 C 8,9 C 5,0 C 62 % 997,2 hPa 0,0 l/m 0 min 0 min 0 W/m 32,2 km/h (5 Bft) 95,74 %
18.02.2022 19:10 9,6 C 8,9 C 5,0 C 62 % 997,2 hPa 0,0 l/m 0 min 0 min 0 W/m 35,4 km/h (5 Bft) 95,74 %
18.02.2022 19:12 9,6 C 8,9 C 5,0 C 60 % 996,9 hPa 0,0 l/m 0 min 0 min 0 W/m 64,4 km/h (8 Bft) 95,74 %
18.02.2022 19:14 9,7 C 8,9 C 5,0 C 60 % 997,0 hPa 0,0 l/m 0 min 0 min 0 W/m 41,8 km/h (6 Bft) 95,74 %
18.02.2022 19:16 9,6 C 8,9 C 5,0 C 61 % 997,2 hPa 0,0 l/m 0 min 0 min 0 W/m 32,2 km/h (5 Bft) 95,65 %
18.02.2022 19:18 9,6 C 8,9 C 5,0 C 61 % 997,3 hPa 0,0 l/m 0 min 0 min 0 W/m 41,8 km/h (6 Bft) 95,74 %
18.02.2022 19:20 9,6 C 8,9 C 5,0 C 61 % 997,5 hPa 0,0 l/m 0 min 0 min 0 W/m 51,5 km/h (7 Bft) 93,62 %
18.02.2022 19:22 9,5 C 8,9 C 5,0 C 61 % 997,5 hPa 0,0 l/m 0 min 0 min 0 W/m 41,8 km/h (6 Bft) 91,49 %
18.02.2022 19:24 9,5 C 8,9 C 5,0 C 60 % 997,4 hPa 0,0 l/m 0 min 0 min 0 W/m 51,5 km/h (7 Bft) 95,74 %
18.02.2022 19:26 9,5 C 8,9 C 5,0 C 60 % 997,2 hPa 0,0 l/m 0 min 0 min 0 W/m 77,2 km/h (9 Bft) 95,74 %
18.02.2022 19:28 9,5 C 8,9 C 5,0 C 60 % 997,3 hPa 0,0 l/m 0 min 0 min 0 W/m 48,3 km/h (6 Bft) 95,74 %
18.02.2022 19:30 9,5 C 8,9 C 5,0 C 61 % 997,6 hPa 0,0 l/m 0 min 0 min 0 W/m 54,7 km/h (7 Bft) 95,65 %
18.02.2022 19:32 9,5 C 8,9 C 5,0 C 61 % 997,7 hPa 0,0 l/m 0 min 0 min 0 W/m 41,8 km/h (6 Bft) 100,00 %
18.02.2022 19:34 9,4 C 8,9 C 5,0 C 61 % 997,9 hPa 0,0 l/m 0 min 0 min 0 W/m 41,8 km/h (6 Bft) 100,00 %
18.02.2022 19:36 9,4 C 8,3 C 5,0 C 61 % 997,8 hPa 0,0 l/m 0 min 0 min 0 W/m 45,1 km/h (6 Bft) 97,87 %
18.02.2022 19:38 9,4 C 8,3 C 5,0 C 61 % 997,8 hPa 0,0 l/m 0 min 0 min 0 W/m 38,6 km/h (5 Bft) 100,00 %
18.02.2022 19:40 9,3 C 8,3 C 5,0 C 61 % 998,1 hPa 0,0 l/m 0 min 0 min 0 W/m 54,7 km/h (7 Bft) 97,83 %
18.02.2022 19:42 9,4 C 8,3 C 5,0 C 61 % 997,9 hPa 0,0 l/m 0 min 0 min 0 W/m 35,4 km/h (5 Bft) 100,00 %
18.02.2022 19:44 9,3 C 8,3 C 5,0 C 61 % 998,0 hPa 0,0 l/m 0 min 0 min 0 W/m 38,6 km/h (5 Bft) 97,87 %
18.02.2022 19:46 9,3 C 8,3 C 5,0 C 61 % 997,9 hPa 0,0 l/m 0 min 0 min 0 W/m 41,8 km/h (6 Bft) 95,74 %
18.02.2022 19:48 9,3 C 8,3 C 5,0 C 62 % 998,1 hPa 0,0 l/m 0 min 0 min 0 W/m 51,5 km/h (7 Bft) 97,87 %
18.02.2022 19:50 9,3 C 8,3 C 5,0 C 61 % 998,1 hPa 0,0 l/m 0 min 0 min 0 W/m 57,9 km/h (7 Bft) 95,65 %
18.02.2022 19:52 9,3 C 8,3 C 5,0 C 61 % 998,0 hPa 0,0 l/m 0 min 0 min 0 W/m 38,6 km/h (5 Bft) 97,87 %
18.02.2022 19:54 9,3 C 8,3 C 5,0 C 61 % 998,1 hPa 0,0 l/m 0 min 0 min 0 W/m 57,9 km/h (7 Bft) 97,87 %
18.02.2022 19:56 9,2 C 8,3 C 5,0 C 61 % 998,1 hPa 0,0 l/m 0 min 0 min 0 W/m 35,4 km/h (5 Bft) 97,87 %
18.02.2022 19:58 9,2 C 8,3 C 5,0 C 62 % 998,1 hPa 0,0 l/m 0 min 0 min 0 W/m 41,8 km/h (6 Bft) 93,62 %
18.02.2022 20:00 9,2 C 8,3 C 5,0 C 62 % 998,2 hPa 0,0 l/m 0 min 0 min 0 W/m 45,1 km/h (6 Bft) 97,92 %
18.02.2022 20:02 9,2 C 8,3 C 5,0 C 62 % 998,3 hPa 0,0 l/m 0 min 0 min 0 W/m 38,6 km/h (5 Bft) 97,44 %
18.02.2022 20:04 9,2 C 8,3 C 5,0 C 63 % 998,3 hPa 0,0 l/m 0 min 0 min 0 W/m 41,8 km/h (6 Bft) 97,87 %
18.02.2022 20:06 9,1 C 8,3 C 4,4 C 63 % 998,7 hPa 0,0 l/m 0 min 0 min 0 W/m 38,6 km/h (5 Bft) 95,74 %
18.02.2022 20:08 9,1 C 8,3 C 4,4 C 63 % 998,4 hPa 0,0 l/m 0 min 0 min 0 W/m 41,8 km/h (6 Bft) 97,92 %
18.02.2022 20:10 9,1 C 8,3 C 4,4 C 62 % 998,3 hPa 0,0 l/m 0 min 0 min 0 W/m 57,9 km/h (7 Bft) 95,74 %
18.02.2022 20:12 9,1 C 8,3 C 5,0 C 62 % 998,6 hPa 0,0 l/m 0 min 0 min 0 W/m 41,8 km/h (6 Bft) 97,87 %
18.02.2022 20:14 9,1 C 8,3 C 5,0 C 63 % 998,6 hPa 0,0 l/m 0 min 0 min 0 W/m 48,3 km/h (6 Bft) 97,87 %
18.02.2022 20:16 9,1 C 8,3 C 4,4 C 62 % 998,6 hPa 0,0 l/m 0 min 0 min 0 W/m 57,9 km/h (7 Bft) 97,83 %
18.02.2022 20:18 9,1 C 8,3 C 4,4 C 62 % 998,8 hPa 0,0 l/m 0 min 0 min 0 W/m 35,4 km/h (5 Bft) 97,87 %
18.02.2022 20:20 9,1 C 8,3 C 4,4 C 62 % 999,0 hPa 0,0 l/m 0 min 0 min 0 W/m 57,9 km/h (7 Bft) 95,74 %
18.02.2022 20:22 9,1 C 8,3 C 4,4 C 62 % 999,3 hPa 0,0 l/m 0 min 0 min 0 W/m 45,1 km/h (6 Bft) 97,87 %
18.02.2022 20:24 9,0 C 8,3 C 4,4 C 62 % 999,1 hPa 0,0 l/m 0 min 0 min 0 W/m 45,1 km/h (6 Bft) 97,87 %
18.02.2022 20:26 8,9 C 8,3 C 4,4 C 62 % 999,2 hPa 0,0 l/m 0 min 0 min 0 W/m 35,4 km/h (5 Bft) 100,00 %
18.02.2022 20:28 8,9 C 8,3 C 4,4 C 62 % 999,3 hPa 0,0 l/m 0 min 0 min 0 W/m 45,1 km/h (6 Bft) 100,00 %
18.02.2022 20:30 8,9 C 8,3 C 4,4 C 62 % 999,2 hPa 0,0 l/m 0 min 0 min 0 W/m 48,3 km/h (6 Bft) 100,00 %
18.02.2022 20:32 8,9 C 8,3 C 4,4 C 62 % 999,5 hPa 0,0 l/m 0 min 0 min 0 W/m 35,4 km/h (5 Bft) 100,00 %
18.02.2022 20:34 8,9 C 8,3 C 4,4 C 62 % 999,4 hPa 0,0 l/m 0 min 0 min 0 W/m 38,6 km/h (5 Bft) 100,00 %
18.02.2022 20:36 8,8 C 7,8 C 4,4 C 63 % 999,4 hPa 0,0 l/m 0 min 0 min 0 W/m 41,8 km/h (6 Bft) 100,00 %
18.02.2022 20:38 8,8 C 8,3 C 4,4 C 62 % 999,4 hPa 0,0 l/m 0 min 0 min 0 W/m 45,1 km/h (6 Bft) 100,00 %
18.02.2022 20:40 8,8 C 8,3 C 4,4 C 61 % 999,5 hPa 0,0 l/m 0 min 0 min 0 W/m 51,5 km/h (7 Bft) 100,00 %
18.02.2022 20:42 8,8 C 7,8 C 4,4 C 62 % 999,6 hPa 0,0 l/m 0 min 0 min 0 W/m 41,8 km/h (6 Bft) 97,87 %
18.02.2022 20:44 8,8 C 7,8 C 4,4 C 62 % 999,6 hPa 0,0 l/m 0 min 0 min 0 W/m 25,7 km/h (4 Bft) 100,00 %
18.02.2022 20:46 8,8 C 7,8 C 4,4 C 62 % 999,7 hPa 0,0 l/m 0 min 0 min 0 W/m 29,0 km/h (5 Bft) 61,70 %
18.02.2022 20:48 8,7 C 7,8 C 4,4 C 62 % 999,7 hPa 0,0 l/m 0 min 0 min 0 W/m 61,2 km/h (7 Bft) 93,18 %
18.02.2022 20:50 8,7 C 7,8 C 4,4 C 62 % 999,7 hPa 0,0 l/m 0 min 0 min 0 W/m 41,8 km/h (6 Bft) 100,00 %
18.02.2022 20:52 8,7 C 7,8 C 4,4 C 61 % 999,6 hPa 0,0 l/m 0 min 0 min 0 W/m 35,4 km/h (5 Bft) 100,00 %
18.02.2022 20:54 8,7 C 7,8 C 4,4 C 62 % 999,8 hPa 0,0 l/m 0 min 0 min 0 W/m 41,8 km/h (6 Bft) 100,00 %
18.02.2022 20:56 8,7 C 7,8 C 4,4 C 62 % 999,8 hPa 0,0 l/m 0 min 0 min 0 W/m 38,6 km/h (5 Bft) 97,87 %
18.02.2022 20:58 8,7 C 7,8 C 4,4 C 62 % 1000,0 hPa 0,0 l/m 0 min 0 min 0 W/m 41,8 km/h (6 Bft) 97,87 %
18.02.2022 21:00 8,7 C 7,8 C 4,4 C 61 % 1000,0 hPa 0,0 l/m 0 min 0 min 0 W/m 90,1 km/h (10 Bft) 97,87 %
18.02.2022 21:02 8,7 C 7,8 C 4,4 C 61 % 1000,0 hPa 0,0 l/m 0 min 0 min 0 W/m 51,5 km/h (7 Bft) 97,14 %
18.02.2022 21:04 8,7 C 7,8 C 4,4 C 62 % 1000,1 hPa 0,0 l/m 0 min 0 min 0 W/m 32,2 km/h (5 Bft) 98,11 %
18.02.2022 21:06 8,7 C 7,8 C 4,4 C 61 % 1000,0 hPa 0,0 l/m 0 min 0 min 0 W/m 61,2 km/h (7 Bft) 96,55 %
18.02.2022 21:08 8,6 C 7,8 C 4,4 C 62 % 1000,2 hPa 0,0 l/m 0 min 0 min 0 W/m 38,6 km/h (5 Bft) 100,00 %
18.02.2022 21:10 8,6 C 7,8 C 4,4 C 61 % 1000,2 hPa 0,0 l/m 0 min 0 min 0 W/m 38,6 km/h (5 Bft) 95,74 %
18.02.2022 21:12 8,6 C 7,8 C 4,4 C 61 % 1000,3 hPa 0,0 l/m 0 min 0 min 0 W/m 45,1 km/h (6 Bft) 97,87 %
18.02.2022 21:14 8,6 C 7,8 C 4,4 C 61 % 1000,5 hPa 0,0 l/m 0 min 0 min 0 W/m 35,4 km/h (5 Bft) 97,87 %
18.02.2022 21:16 8,6 C 7,8 C 4,4 C 61 % 1000,4 hPa 0,0 l/m 0 min 0 min 0 W/m 38,6 km/h (5 Bft) 95,12 %
18.02.2022 21:18 8,5 C 7,8 C 3,9 C 61 % 1000,4 hPa 0,0 l/m 0 min 0 min 0 W/m 45,1 km/h (6 Bft) 96,15 %
18.02.2022 21:20 8,5 C 7,8 C 3,9 C 61 % 1000,5 hPa 0,0 l/m 0 min 0 min 0 W/m 35,4 km/h (5 Bft) 95,74 %
18.02.2022 21:22 8,4 C 7,8 C 3,9 C 61 % 1000,4 hPa 0,0 l/m 0 min 0 min 0 W/m 35,4 km/h (5 Bft) 97,87 %
18.02.2022 21:24 8,4 C 7,8 C 3,9 C 61 % 1000,8 hPa 0,0 l/m 0 min 0 min 0 W/m 48,3 km/h (6 Bft) 97,87 %
18.02.2022 21:26 8,4 C 7,8 C 3,9 C 61 % 1000,7 hPa 0,0 l/m 0 min 0 min 0 W/m 41,8 km/h (6 Bft) 97,87 %
18.02.2022 21:28 8,4 C 7,8 C 3,9 C 61 % 1000,7 hPa 0,0 l/m 0 min 0 min 0 W/m 54,7 km/h (7 Bft) 100,00 %
18.02.2022 21:30 8,3 C 7,8 C 3,9 C 62 % 1000,8 hPa 0,0 l/m 0 min 0 min 0 W/m 29,0 km/h (5 Bft) 100,00 %
18.02.2022 21:32 8,3 C 7,8 C 3,9 C 61 % 1000,9 hPa 0,0 l/m 0 min 0 min 0 W/m 38,6 km/h (5 Bft) 100,00 %
18.02.2022 21:34 8,3 C 7,2 C 3,9 C 61 % 1001,0 hPa 0,0 l/m 0 min 0 min 0 W/m 35,4 km/h (5 Bft) 100,00 %
18.02.2022 21:36 8,3 C 7,2 C 3,9 C 61 % 1001,0 hPa 0,0 l/m 0 min 0 min 0 W/m 38,6 km/h (5 Bft) 100,00 %
18.02.2022 21:38 8,2 C 7,2 C 3,9 C 61 % 1001,1 hPa 0,0 l/m 0 min 0 min 0 W/m 32,2 km/h (5 Bft) 95,56 %
18.02.2022 21:40 8,2 C 7,2 C 3,9 C 61 % 1001,0 hPa 0,0 l/m 0 min 0 min 0 W/m 32,2 km/h (5 Bft) 97,87 %
18.02.2022 21:42 8,2 C 7,2 C 3,9 C 61 % 1001,2 hPa 0,0 l/m 0 min 0 min 0 W/m 25,7 km/h (4 Bft) 95,83 %
18.02.2022 21:44 8,1 C 7,2 C 3,9 C 61 % 1001,2 hPa 0,0 l/m 0 min 0 min 0 W/m 38,6 km/h (5 Bft) 97,87 %
18.02.2022 21:46 8,1 C 7,2 C 3,9 C 61 % 1001,5 hPa 0,0 l/m 0 min 0 min 0 W/m 35,4 km/h (5 Bft) 97,87 %
18.02.2022 21:48 8,1 C 7,2 C 3,9 C 61 % 1001,1 hPa 0,0 l/m 0 min 0 min 0 W/m 35,4 km/h (5 Bft) 97,87 %
18.02.2022 21:50 8,1 C 7,2 C 3,3 C 61 % 1001,3 hPa 0,0 l/m 0 min 0 min 0 W/m 45,1 km/h (6 Bft) 97,83 %
18.02.2022 21:52 8,0 C 7,2 C 3,3 C 61 % 1001,4 hPa 0,0 l/m 0 min 0 min 0 W/m 38,6 km/h (5 Bft) 97,87 %
18.02.2022 21:54 7,9 C 7,2 C 3,3 C 60 % 1001,4 hPa 0,0 l/m 0 min 0 min 0 W/m 48,3 km/h (6 Bft) 97,87 %
18.02.2022 21:56 7,9 C 7,2 C 3,3 C 60 % 1001,4 hPa 0,0 l/m 0 min 0 min 0 W/m 45,1 km/h (6 Bft) 93,62 %
18.02.2022 21:58 7,9 C 7,2 C 3,3 C 60 % 1001,5 hPa 0,0 l/m 0 min 0 min 0 W/m 22,5 km/h (4 Bft) 97,87 %
18.02.2022 22:00 7,9 C 7,2 C 3,3 C 60 % 1001,5 hPa 0,0 l/m 0 min 0 min 0 W/m 22,5 km/h (4 Bft) 97,87 %
18.02.2022 22:02 7,8 C 7,2 C 3,3 C 61 % 1001,5 hPa 0,0 l/m 0 min 0 min 0 W/m 29,0 km/h (5 Bft) 95,74 %
18.02.2022 22:04 7,8 C 6,7 C 3,3 C 61 % 1001,5 hPa 0,0 l/m 0 min 0 min 0 W/m 22,5 km/h (4 Bft) 97,87 %
18.02.2022 22:06 7,8 C 6,7 C 3,3 C 61 % 1001,4 hPa 0,0 l/m 0 min 0 min 0 W/m 29,0 km/h (5 Bft) 95,74 %
18.02.2022 22:08 7,7 C 6,7 C 3,3 C 61 % 1001,9 hPa 0,0 l/m 0 min 0 min 0 W/m 29,0 km/h (5 Bft) 97,87 %
18.02.2022 22:10 7,7 C 6,7 C 3,3 C 62 % 1001,6 hPa 0,0 l/m 0 min 0 min 0 W/m 25,7 km/h (4 Bft) 97,87 %
18.02.2022 22:12 7,7 C 6,7 C 3,3 C 62 % 1001,9 hPa 0,0 l/m 0 min 0 min 0 W/m 45,1 km/h (6 Bft) 95,74 %
18.02.2022 22:14 7,7 C 6,7 C 3,3 C 62 % 1001,9 hPa 0,0 l/m 0 min 0 min 0 W/m 35,4 km/h (5 Bft) 97,83 %
18.02.2022 22:16 7,7 C 6,7 C 3,3 C 62 % 1001,7 hPa 0,0 l/m 0 min 0 min 0 W/m 29,0 km/h (5 Bft) 95,74 %
18.02.2022 22:18 7,6 C 6,7 C 3,3 C 63 % 1002,0 hPa 0,0 l/m 0 min 0 min 0 W/m 38,6 km/h (5 Bft) 95,74 %
18.02.2022 22:20 7,6 C 6,7 C 3,3 C 63 % 1001,9 hPa 0,0 l/m 0 min 0 min 0 W/m 45,1 km/h (6 Bft) 95,74 %
18.02.2022 22:22 7,7 C 6,7 C 3,3 C 62 % 1001,8 hPa 0,0 l/m 0 min 0 min 0 W/m 38,6 km/h (5 Bft) 95,74 %
18.02.2022 22:24 7,7 C 6,7 C 3,3 C 62 % 1002,1 hPa 0,0 l/m 0 min 0 min 0 W/m 35,4 km/h (5 Bft) 95,74 %
18.02.2022 22:26 7,6 C 6,7 C 3,3 C 63 % 1001,9 hPa 0,0 l/m 0 min 0 min 0 W/m 29,0 km/h (5 Bft) 97,83 %
18.02.2022 22:28 7,6 C 6,7 C 3,3 C 63 % 1001,9 hPa 0,0 l/m 0 min 0 min 0 W/m 25,7 km/h (4 Bft) 97,87 %
18.02.2022 22:30 7,6 C 6,7 C 3,3 C 63 % 1001,9 hPa 0,0 l/m 0 min 0 min 0 W/m 38,6 km/h (5 Bft) 95,74 %
18.02.2022 22:32 7,6 C 6,7 C 3,3 C 63 % 1002,0 hPa 0,0 l/m 0 min 0 min 0 W/m 22,5 km/h (4 Bft) 97,14 %
18.02.2022 22:34 7,5 C 6,7 C 2,8 C 64 % 1002,2 hPa 0,0 l/m 0 min 0 min 0 W/m 32,2 km/h (5 Bft) 98,11 %
18.02.2022 22:36 7,5 C 6,7 C 2,8 C 64 % 1002,2 hPa 0,0 l/m 0 min 0 min 0 W/m 48,3 km/h (6 Bft) 97,87 %
18.02.2022 22:38 7,5 C 6,7 C 2,8 C 64 % 1002,0 hPa 0,0 l/m 0 min 0 min 0 W/m 25,7 km/h (4 Bft) 93,62 %
18.02.2022 22:40 7,4 C 6,7 C 2,8 C 64 % 1002,1 hPa 0,0 l/m 0 min 0 min 0 W/m 29,0 km/h (5 Bft) 97,87 %
18.02.2022 22:42 7,5 C 6,7 C 2,8 C 64 % 1002,3 hPa 0,0 l/m 0 min 0 min 0 W/m 35,4 km/h (5 Bft) 95,83 %
18.02.2022 22:44 7,5 C 6,7 C 2,8 C 63 % 1002,0 hPa 0,0 l/m 0 min 0 min 0 W/m 32,2 km/h (5 Bft) 95,74 %
18.02.2022 22:46 7,4 C 6,7 C 2,8 C 64 % 1002,4 hPa 0,0 l/m 0 min 0 min 0 W/m 25,7 km/h (4 Bft) 95,74 %
18.02.2022 22:48 7,4 C 6,7 C 2,8 C 64 % 1002,7 hPa 0,0 l/m 0 min 0 min 0 W/m 35,4 km/h (5 Bft) 97,87 %
18.02.2022 22:50 7,4 C 6,7 C 2,8 C 63 % 1002,0 hPa 0,0 l/m 0 min 0 min 0 W/m 51,5 km/h (7 Bft) 95,65 %
18.02.2022 22:52 7,4 C 6,7 C 2,8 C 63 % 1002,2 hPa 0,0 l/m 0 min 0 min 0 W/m 35,4 km/h (5 Bft) 95,74 %
18.02.2022 22:54 7,4 C 6,7 C 2,8 C 63 % 1002,1 hPa 0,0 l/m 0 min 0 min 0 W/m 32,2 km/h (5 Bft) 95,74 %
18.02.2022 22:56 7,4 C 6,7 C 2,8 C 63 % 1002,1 hPa 0,0 l/m 0 min 0 min 0 W/m 41,8 km/h (6 Bft) 95,74 %
18.02.2022 22:58 7,4 C 6,7 C 2,8 C 62 % 1002,4 hPa 0,0 l/m 0 min 0 min 0 W/m 35,4 km/h (5 Bft) 95,74 %
18.02.2022 23:00 7,4 C 6,7 C 2,8 C 62 % 1002,2 hPa 0,0 l/m 0 min 0 min 0 W/m 45,1 km/h (6 Bft) 97,87 %
18.02.2022 23:02 7,4 C 6,7 C 2,8 C 62 % 1002,3 hPa 0,0 l/m 0 min 0 min 0 W/m 38,6 km/h (5 Bft) 93,88 %
18.02.2022 23:04 7,4 C 6,7 C 2,8 C 62 % 1002,4 hPa 0,0 l/m 0 min 0 min 0 W/m 41,8 km/h (6 Bft) 97,87 %
18.02.2022 23:06 7,3 C 6,7 C 2,8 C 62 % 1002,4 hPa 0,0 l/m 0 min 0 min 0 W/m 41,8 km/h (6 Bft) 97,87 %
18.02.2022 23:08 7,4 C 6,7 C 2,8 C 60 % 1002,3 hPa 0,0 l/m 0 min 0 min 0 W/m 48,3 km/h (6 Bft) 97,87 %
18.02.2022 23:10 7,4 C 6,7 C 2,8 C 60 % 1002,5 hPa 0,0 l/m 0 min 0 min 0 W/m 45,1 km/h (6 Bft) 95,74 %
18.02.2022 23:12 7,4 C 6,7 C 2,8 C 60 % 1002,5 hPa 0,0 l/m 0 min 0 min 0 W/m 41,8 km/h (6 Bft) 97,87 %
18.02.2022 23:14 7,4 C 6,7 C 2,8 C 60 % 1002,6 hPa 0,0 l/m 0 min 0 min 0 W/m 41,8 km/h (6 Bft) 97,83 %
18.02.2022 23:16 7,4 C 6,7 C 2,8 C 60 % 1002,8 hPa 0,0 l/m 0 min 0 min 0 W/m 29,0 km/h (5 Bft) 97,87 %
18.02.2022 23:18 7,3 C 6,7 C 2,8 C 61 % 1002,7 hPa 0,0 l/m 0 min 0 min 0 W/m 22,5 km/h (4 Bft) 97,87 %
18.02.2022 23:20 7,3 C 6,7 C 2,8 C 60 % 1002,9 hPa 0,0 l/m 0 min 0 min 0 W/m 41,8 km/h (6 Bft) 97,87 %
18.02.2022 23:22 7,3 C 6,7 C 2,8 C 61 % 1002,8 hPa 0,0 l/m 0 min 0 min 0 W/m 35,4 km/h (5 Bft) 100,00 %
18.02.2022 23:24 7,3 C 6,7 C 2,8 C 61 % 1002,8 hPa 0,0 l/m 0 min 0 min 0 W/m 45,1 km/h (6 Bft) 100,00 %
18.02.2022 23:26 7,3 C 6,7 C 2,8 C 61 % 1002,9 hPa 0,0 l/m 0 min 0 min 0 W/m 29,0 km/h (5 Bft) 97,87 %
18.02.2022 23:28 7,3 C 6,7 C 2,8 C 61 % 1002,9 hPa 0,0 l/m 0 min 0 min 0 W/m 45,1 km/h (6 Bft) 100,00 %
18.02.2022 23:30 7,4 C 6,7 C 2,8 C 61 % 1002,8 hPa 0,0 l/m 0 min 0 min 0 W/m 45,1 km/h (6 Bft) 100,00 %
18.02.2022 23:32 7,4 C 6,7 C 2,8 C 61 % 1002,9 hPa 0,0 l/m 0 min 0 min 0 W/m 29,0 km/h (5 Bft) 100,00 %
18.02.2022 23:34 7,4 C 6,7 C 2,8 C 62 % 1003,1 hPa 0,0 l/m 0 min 0 min 0 W/m 35,4 km/h (5 Bft) 100,00 %
18.02.2022 23:36 7,4 C 6,7 C 2,8 C 62 % 1003,1 hPa 0,0 l/m 0 min 0 min 0 W/m 29,0 km/h (5 Bft) 100,00 %
18.02.2022 23:38 7,4 C 6,7 C 2,8 C 62 % 1003,0 hPa 0,0 l/m 0 min 0 min 0 W/m 32,2 km/h (5 Bft) 100,00 %
18.02.2022 23:40 7,4 C 6,7 C 2,8 C 62 % 1003,1 hPa 0,0 l/m 0 min 0 min 0 W/m 35,4 km/h (5 Bft) 97,87 %
18.02.2022 23:42 7,4 C 6,7 C 2,8 C 63 % 1003,2 hPa 0,0 l/m 0 min 0 min 0 W/m 19,3 km/h (3 Bft) 100,00 %
18.02.2022 23:44 7,4 C 6,7 C 2,8 C 63 % 1003,1 hPa 0,0 l/m 0 min 0 min 0 W/m 38,6 km/h (5 Bft) 100,00 %
18.02.2022 23:46 7,4 C 6,7 C 2,8 C 63 % 1003,1 hPa 0,0 l/m 0 min 0 min 0 W/m 25,7 km/h (4 Bft) 100,00 %
18.02.2022 23:48 7,4 C 6,7 C 2,8 C 63 % 1003,3 hPa 0,0 l/m 0 min 0 min 0 W/m 25,7 km/h (4 Bft) 100,00 %
18.02.2022 23:50 7,3 C 6,7 C 2,8 C 64 % 1003,4 hPa 0,0 l/m 0 min 0 min 0 W/m 25,7 km/h (4 Bft) 100,00 %
18.02.2022 23:52 7,3 C 6,7 C 2,8 C 64 % 1003,5 hPa 0,0 l/m 0 min 0 min 0 W/m 35,4 km/h (5 Bft) 97,87 %
18.02.2022 23:54 7,3 C 6,7 C 2,8 C 65 % 1003,3 hPa 0,0 l/m 0 min 0 min 0 W/m 25,7 km/h (4 Bft) 100,00 %
18.02.2022 23:56 7,3 C 6,7 C 2,8 C 65 % 1003,3 hPa 0,0 l/m 0 min 0 min 0 W/m 19,3 km/h (3 Bft) 100,00 %
18.02.2022 23:58 7,3 C 6,7 C 2,8 C 65 % 1003,2 hPa 0,0 l/m 0 min 0 min 0 W/m 32,2 km/h (5 Bft) 100,00 %
_ Min-Zeit 01:12 00:00 00:00 18:20 14:58 - - - - 00:14 17:08
Minimum _ 6,9 C 6,1 C 2,8 C 58 % 992,8 hPa - - - - 6,4 km/h (2 Bft) 52,27 %
_ Max-Zeit 14:54 14:36 13:04 09:34 00:18 15:04 13:24 06:48 14:38 21:00 00:00
Maximum _ 13,5 C 13,9 C 9,4 C 94 % 1012,2 hPa 0,8 l/m 2 min 2 min 316 W/m 90,1 km/h
S-SW (10 Bft)
100,00 %
Durchschnitt _ 9,1 C 8,4 C 4,8 C 80 % 1001,8 hPa #1,8 l/m #28 min. #2:16 h 70 W/m 31,1 km/h (5 Bft) 97,26 %
© 2022 W. Hausmann